GFSSGP_sfc_temp_057.txt.gz
Temp
80 79 78 75 62 57 52 59 63 62 64 68 71 69 64 63 63 54 70 74 75 74 77 79 81 81 82 81 81 81 81 80 80 80 80 80 81 80 80 80 80 81 80 80 80 80 81 81 81
77 81 74 67 55 49 53 61 60 63 69 70 71 69 65 62 70 68 69 75 76 76 76 77 81 81 82 81 81 81 82 80 79 80 80 79 79 80 80 79 80 80 80 79 79 79 80 80 80
78 80 68 62 54 52 54 60 61 67 70 69 67 68 65 65 72 70 73 76 76 75 76 77 81 81 82 81 81 80 79 79 79 79 79 79 79 80 79 79 78 78 78 78 78 78 79 79 79
74 71 67 59 56 59 59 61 66 67 69 71 68 63 68 71 70 72 77 77 75 73 73 78 81 81 81 81 81 80 79 79 79 79 79 78 78 78 78 78 77 77 77 77 77 78 78 79 79
70 66 57 55 56 60 61 64 66 64 64 65 65 61 64 71 75 75 76 77 74 71 74 77 81 82 81 81 80 80 79 79 79 78 78 78 78 77 77 77 76 76 76 76 76 77 78 78 78
66 64 56 52 55 61 60 63 64 61 61 63 64 62 62 69 72 74 76 74 75 73 75 76 80 81 81 81 80 80 81 79 78 78 78 78 78 77 77 76 76 76 76 76 76 76 77 77 77
64 59 54 54 56 59 64 64 60 60 58 60 64 59 63 69 70 76 75 73 74 75 74 74 75 78 80 80 80 80 79 79 78 78 78 77 77 77 77 76 76 76 76 76 75 75 76 76 76
63 61 55 53 57 58 65 66 66 62 58 65 64 58 57 63 72 75 73 71 70 70 71 70 73 74 73 73 79 79 78 78 78 77 76 78 77 77 77 77 76 77 77 76 76 76 76 76 76
66 56 53 57 58 61 67 64 65 65 62 62 61 60 63 68 71 70 68 69 72 72 68 68 69 70 72 72 73 73 75 75 74 73 74 72 70 69 71 73 76 77 77 77 77 76 76 75 75
62 55 59 64 64 63 66 64 64 62 59 59 60 63 65 67 67 68 68 63 64 65 67 67 70 70 70 74 69 68 70 69 69 69 68 69 67 70 71 72 74 74 75 76 76 76 75 74 65
62 60 64 66 67 68 66 63 63 60 55 58 59 61 62 62 63 64 62 61 59 60 64 66 65 68 68 69 67 66 68 67 68 69 67 66 68 67 69 69 69 69 71 67 67 65 64 63 63
63 66 67 67 68 67 64 64 58 58 57 62 62 62 61 60 61 61 60 61 61 61 60 63 62 63 61 62 61 58 59 59 58 58 60 59 58 62 63 65 67 68 68 68 68 67 66 63 63
63 64 67 67 66 63 65 59 59 57 59 61 63 62 59 58 58 59 60 60 59 60 59 59 59 57 58 58 56 56 54 52 53 53 55 54 53 55 54 55 57 62 63 64 65 67 67 67 66
65 65 64 64 64 63 61 57 58 57 59 60 61 58 57 58 58 57 57 57 57 57 58 58 59 57 58 56 56 55 55 54 55 53 54 55 52 53 52 53 53 52 52 56 58 58 60 62 64
65 60 61 60 62 60 62 54 55 58 59 58 56 54 57 58 59 58 59 57 57 57 58 59 59 58 57 56 56 55 56 56 54 54 55 56 54 53 51 51 51 52 51 53 54 55 56 56 59
59 57 51 58 60 60 59 51 57 57 57 55 54 52 55 57 58 56 59 59 57 58 58 60 65 59 57 56 55 55 54 53 53 53 53 56 56 55 53 52 52 50 50 50 50 51 53 53 53
53 48 48 55 60 58 56 52 55 55 56 54 51 52 54 54 53 54 58 58 58 57 57 58 58 59 58 55 54 53 54 53 52 52 53 55 56 56 52 51 50 51 50 50 49 50 49 50 51
50 48 50 49 55 55 51 52 52 54 54 54 51 50 52 54 56 57 58 58 58 56 56 57 57 56 55 53 53 52 53 53 52 52 54 55 54 55 52 51 51 50 49 49 48 47 48 49 50
55 51 50 53 58 54 51 52 54 55 52 51 50 50 51 53 56 56 58 57 56 55 54 54 56 55 54 53 52 50 51 50 52 52 54 55 54 54 52 51 50 50 48 48 48 47 47 47 49
55 50 49 54 58 55 51 52 56 54 54 55 54 51 52 52 54 55 57 55 56 55 54 54 55 55 54 52 51 50 49 50 50 51 53 53 53 53 54 50 49 49 47 48 47 46 44 45 47
52 49 48 50 54 53 51 48 50 53 52 55 54 55 54 54 54 53 53 55 55 54 54 54 54 55 54 53 51 50 49 49 50 50 50 51 51 51 51 50 49 48 47 46 45 45 44 43 44
47 54 54 52 48 41 49 37 46 46 48 49 50 50 52 52 53 55 53 53 54 55 54 54 55 55 56 53 51 50 48 47 47 46 47 48 50 50 51 50 49 47 46 45 45 51 45 42 41
51 56 51 50 43 39 41 37 44 47 47 48 47 49 51 52 55 54 55 55 55 54 54 54 54 55 55 52 51 49 48 46 46 46 46 47 47 48 49 49 48 47 46 45 45 45 44 43 41
56 51 47 42 39 33 39 39 42 44 46 49 46 51 52 52 52 53 55 52 54 53 53 52 53 54 53 52 51 49 47 46 45 45 44 44 44 45 47 49 47 46 45 45 45 45 43 43 42
51 43 35 33 32 33 41 39 43 47 48 49 51 51 52 51 51 52 53 52 53 52 52 53 52 53 52 51 50 48 47 45 44 44 43 43 43 43 44 45 45 45 45 45 45 43 43 43 41
45 43 35 32 31 34 42 36 44 47 50 49 50 50 51 51 51 52 52 52 52 53 52 52 52 51 51 49 48 47 46 44 44 44 43 42 42 42 44 45 45 45 45 45 44 42 42 42 43
43 40 43 37 32 31 36 41 46 49 50 50 50 50 49 51 51 52 52 51 51 50 51 51 51 50 49 47 46 46 45 45 44 44 42 42 43 47 48 45 44 44 45 47 47 45 45 46 46
45 49 38 35 31 28 32 33 38 43 46 50 50 50 50 51 51 50 50 51 50 49 49 49 49 47 46 46 45 47 44 44 44 42 42 42 43 42 43 44 45 45 46 46 45 44 45 44 44
43 40 39 38 34 30 28 34 42 42 46 45 47 50 50 50 50 50 50 50 49 48 47 46 46 46 46 46 45 44 43 43 42 41 41 41 41 44 45 45 45 45 45 45 44 44 44 43 44
43 41 40 33 32 29 25 32 45 43 47 49 47 50 49 50 51 50 50 48 46 45 45 44 45 44 45 44 43 42 42 41 40 40 41 42 43 44 44 45 44 44 45 45 45 44 45 43 43

GFSSGP_sfc_temp_060.txt.gz
Temp
79 78 75 72 62 57 51 56 59 61 61 65 67 67 63 62 61 53 69 72 73 73 75 78 81 81 81 81 81 80 80 80 80 80 80 80 81 80 80 80 80 80 80 80 80 80 81 81 81
77 80 75 65 54 49 52 58 58 60 67 67 69 66 63 60 67 67 67 73 74 74 75 76 81 80 81 81 81 81 80 79 79 80 79 79 80 80 79 79 79 80 80 79 79 79 80 80 80
77 78 68 61 53 50 52 58 59 64 67 66 65 66 63 62 69 69 72 74 74 73 75 76 81 80 81 81 80 80 79 79 79 79 79 78 79 79 79 78 78 78 78 78 78 79 79 79 79
73 70 66 57 53 56 58 60 64 65 66 69 65 62 65 69 68 70 75 74 72 72 73 77 81 81 81 81 80 80 79 79 79 79 78 78 78 78 77 77 77 77 77 77 77 77 78 79 79
68 64 57 54 54 58 58 63 63 62 62 63 63 60 61 69 71 72 73 75 71 71 72 76 81 81 81 80 80 80 79 78 78 78 78 78 78 77 77 77 77 77 77 77 77 77 77 78 78
65 63 55 51 54 59 59 62 62 60 59 61 62 60 60 68 69 71 74 72 74 72 73 75 80 81 80 79 80 80 79 79 78 78 78 78 77 77 77 76 76 76 76 76 76 76 77 77 77
63 58 54 54 55 57 63 64 60 60 58 58 63 58 59 65 67 72 70 70 73 73 73 73 74 77 80 80 80 79 79 79 78 78 78 77 77 77 77 77 77 77 76 77 76 76 76 76 76
62 59 53 53 56 57 63 64 64 60 56 63 62 57 55 61 69 71 70 69 69 68 69 70 71 72 71 72 78 78 77 76 76 76 75 75 73 74 75 76 75 77 77 77 77 76 76 76 76
65 56 52 56 57 60 64 62 63 63 61 60 59 58 61 67 68 69 68 66 66 69 66 68 69 70 69 71 73 72 74 74 73 71 73 69 68 70 69 74 75 76 76 77 77 77 76 76 73
62 55 58 63 62 61 64 63 62 61 57 57 57 60 63 65 64 67 67 62 62 62 65 64 67 68 68 72 68 68 69 67 67 67 67 70 68 69 70 71 73 73 73 73 73 73 72 69 64
61 60 63 64 65 66 64 61 61 59 55 58 58 59 60 61 61 61 61 62 59 59 62 64 68 68 67 65 64 62 63 61 61 60 60 59 64 65 66 67 67 68 70 69 69 68 65 62 62
61 64 66 65 66 65 63 63 57 57 56 60 61 60 59 59 59 59 59 63 60 60 62 62 63 62 59 59 58 56 55 54 54 54 55 52 54 54 54 57 57 58 60 64 66 66 67 67 65
62 62 66 64 64 62 64 58 58 57 57 59 61 61 57 57 56 57 58 58 57 58 58 58 57 55 55 56 54 54 53 51 51 52 53 52 52 52 51 50 51 52 54 55 56 57 59 59 63
62 63 63 63 62 61 60 56 57 57 57 58 59 56 55 56 57 55 55 56 55 55 56 56 57 55 55 54 54 53 53 52 52 51 52 53 51 51 51 51 51 49 48 51 52 52 54 55 55
66 58 58 58 60 59 60 54 55 57 57 56 55 53 54 56 56 56 57 55 55 54 55 56 56 56 55 54 54 53 54 53 52 52 53 53 52 51 49 49 49 49 48 50 51 51 52 52 54
59 55 51 56 59 58 57 51 55 55 55 53 53 51 53 55 56 55 56 56 54 55 55 57 63 56 54 53 52 53 52 51 51 51 51 54 54 53 50 50 49 49 48 47 47 48 49 50 50
53 48 48 55 58 57 54 51 53 53 54 52 50 50 52 52 53 52 56 56 55 55 55 56 55 56 55 53 52 52 52 51 50 50 51 53 54 54 50 49 49 49 48 47 47 47 46 47 48
50 47 49 49 53 53 49 51 52 52 52 52 50 49 50 52 54 55 56 56 56 54 54 55 54 54 53 51 50 50 51 51 50 50 52 53 52 53 50 49 49 48 47 46 46 45 46 47 46
54 50 49 51 56 52 50 50 54 53 50 50 49 48 49 51 55 55 56 55 53 53 52 53 54 52 52 51 51 50 50 49 50 51 53 52 52 52 50 48 48 47 47 46 45 44 44 44 45
54 50 49 53 56 53 50 51 55 51 51 53 53 50 51 50 52 54 55 53 53 54 53 52 53 53 52 51 50 49 48 49 48 49 51 52 51 51 52 48 48 47 45 45 45 43 42 42 44
51 48 47 49 52 51 49 48 51 51 50 52 52 51 51 53 52 52 52 52 52 52 52 53 53 54 53 52 50 49 48 47 48 48 49 50 50 50 49 48 47 46 44 44 43 42 42 40 41
45 53 53 51 46 41 48 37 46 47 49 49 49 48 51 51 53 54 52 52 52 52 52 52 53 53 54 51 50 49 48 47 46 45 46 47 48 48 48 48 47 45 44 43 43 48 43 40 39
49 54 50 48 42 39 41 37 44 47 48 49 49 48 49 51 53 53 53 55 52 52 52 52 52 52 53 50 49 47 46 45 45 44 45 45 46 47 48 47 46 45 44 43 43 43 42 40 39
55 50 45 41 39 34 38 39 41 43 46 47 49 50 50 50 51 53 52 51 52 52 52 51 51 52 51 50 49 47 46 45 44 44 43 43 43 44 45 46 44 44 43 43 44 43 41 41 40
50 43 35 34 33 33 40 38 43 46 48 48 48 49 50 49 50 51 52 51 51 52 51 51 50 50 50 49 48 47 46 44 43 43 42 42 41 42 43 43 43 44 43 43 43 41 40 40 40
43 42 34 32 31 33 39 35 43 47 49 48 48 48 48 48 49 49 50 50 49 49 50 50 50 49 49 47 47 45 45 43 43 42 42 41 40 41 43 44 43 43 44 44 44 42 43 42 41
41 38 41 35 31 30 35 40 46 48 49 49 49 50 50 50 49 49 48 49 49 49 50 50 49 47 47 46 45 44 44 43 42 42 41 40 41 45 46 43 43 45 45 44 43 43 43 43 43
43 47 38 34 30 28 31 32 37 41 44 48 46 45 47 48 49 49 49 50 49 47 46 46 46 46 45 45 44 46 43 42 42 41 41 41 42 41 42 42 43 43 43 43 42 42 43 42 42
42 38 37 36 32 30 27 33 40 39 44 44 44 46 46 47 47 47 47 46 45 44 45 44 45 45 44 44 43 42 42 42 41 40 40 41 41 41 42 43 43 43 43 43 42 42 43 42 42
41 39 39 33 31 27 24 31 43 41 44 45 44 46 46 47 47 46 44 43 43 43 43 43 43 43 43 43 42 41 41 40 38 38 39 40 41 43 42 43 42 43 43 43 42 42 46 45 45

GFSSGP_sfc_temp_063.txt.gz
Temp
82 83 81 76 68 65 61 64 69 67 68 71 74 74 70 69 68 64 77 79 79 80 82 83 81 81 81 81 81 80 80 80 80 80 80 80 80 80 80 80 80 80 80 80 80 81 81 81 80
82 81 77 68 64 59 62 67 66 68 71 73 74 72 70 67 74 76 78 79 79 81 82 83 81 81 81 81 81 81 79 79 80 79 79 79 80 79 79 79 79 80 79 79 80 79 80 80 80
81 81 72 68 63 61 62 68 67 69 73 73 71 73 71 70 75 79 80 80 81 81 82 83 81 81 81 81 80 80 79 79 79 79 79 79 79 79 79 78 78 78 78 78 78 78 79 79 79
79 76 74 67 63 66 68 70 71 70 72 74 73 69 74 77 77 80 81 81 81 81 82 82 81 81 81 80 80 79 79 79 79 79 78 78 78 78 78 78 78 78 77 78 77 78 79 78 78
75 73 66 63 64 68 70 72 71 70 70 70 72 67 70 77 77 80 80 81 80 80 81 83 81 81 81 80 80 79 79 79 78 78 78 78 78 78 78 77 77 77 77 77 77 77 78 78 78
72 71 64 61 64 69 71 72 72 70 69 70 69 69 71 75 76 78 80 81 81 80 80 82 81 81 81 80 80 80 79 79 78 78 78 78 78 78 77 77 77 77 77 77 77 77 77 77 77
71 67 63 62 63 66 70 73 71 69 68 69 72 67 72 73 74 78 80 81 81 81 81 82 82 82 80 80 80 80 79 77 76 76 77 77 76 77 77 77 77 77 77 77 77 77 77 77 77
68 66 61 62 62 65 69 71 70 71 69 72 72 67 67 72 74 77 78 77 78 78 79 80 80 81 80 81 77 77 76 74 75 74 74 73 73 74 75 75 77 77 77 78 77 77 77 76 76
72 64 61 63 63 68 69 69 69 70 69 68 68 69 71 73 75 76 75 74 75 75 76 77 77 76 77 75 73 73 74 74 73 73 73 70 73 73 72 74 74 75 75 75 75 74 74 73 73
69 64 65 69 69 69 69 71 68 68 66 65 66 67 71 73 74 74 73 72 72 72 71 76 77 76 75 75 69 68 68 66 69 72 73 75 74 72 72 71 72 72 73 73 73 73 73 74 76
68 67 68 69 71 71 69 67 68 67 64 67 66 65 69 70 70 71 70 73 71 71 72 72 73 74 74 74 73 72 71 71 71 71 72 72 72 71 71 71 70 71 70 73 73 72 70 72 75
70 69 70 70 70 70 68 68 67 66 69 68 69 69 68 69 69 69 68 69 70 70 70 72 72 71 71 70 70 69 70 69 69 68 68 69 69 69 68 68 68 68 69 70 71 71 72 73 74
70 68 68 68 68 66 67 65 67 65 65 66 66 67 67 67 67 68 69 69 70 69 68 69 70 71 70 69 68 68 68 68 67 68 67 69 67 68 68 67 67 67 67 68 69 70 71 72 72
68 67 67 69 67 67 67 63 65 65 63 64 65 65 66 66 67 65 67 67 69 69 68 68 68 69 70 69 68 67 67 66 66 66 66 66 67 67 66 67 66 66 65 67 68 68 68 69 70
68 66 66 66 67 66 67 63 62 64 63 63 63 64 63 65 65 68 68 68 69 69 67 68 67 68 69 68 67 66 67 67 66 65 67 67 66 66 66 66 66 65 66 66 67 68 69 68 69
64 63 60 65 65 63 66 60 65 61 62 61 62 62 62 63 66 67 66 68 67 68 68 68 69 67 68 67 66 67 66 66 66 66 67 66 66 66 66 65 64 64 64 63 64 64 64 65 66
59 57 57 61 64 63 63 61 62 60 61 60 61 61 61 62 63 65 66 67 66 68 68 67 67 67 66 66 66 66 66 66 66 67 67 65 65 65 65 65 64 63 63 63 61 63 61 62 63
55 56 56 57 61 61 58 58 61 60 59 61 61 60 60 62 63 65 65 66 66 66 67 67 66 66 65 64 65 65 66 66 66 67 67 66 65 64 65 64 63 63 62 61 61 60 62 61 62
60 57 57 59 61 60 57 56 61 61 57 57 58 59 59 61 65 65 65 65 65 64 65 66 65 65 65 65 65 65 66 65 65 65 64 64 64 64 64 64 63 61 60 60 59 59 57 59 60
58 57 56 58 60 59 55 56 61 58 57 58 59 58 59 59 63 63 63 63 64 65 65 65 66 64 65 64 64 66 66 64 63 62 63 63 63 63 64 62 61 61 59 60 59 57 56 57 59
56 55 54 55 56 57 53 53 56 58 58 59 59 60 60 60 63 63 63 62 62 63 63 65 65 65 64 63 62 61 61 61 61 62 62 62 61 61 61 61 60 60 59 57 57 56 54 54 56
52 57 57 55 52 48 54 45 52 54 57 57 57 56 58 59 61 63 62 61 62 62 62 63 63 64 63 62 62 62 62 61 61 60 60 60 59 60 59 59 58 58 58 57 57 58 56 54 52
54 56 54 52 49 49 48 47 52 53 54 56 57 56 55 57 61 62 62 63 63 61 62 62 62 62 62 63 60 60 59 59 59 58 57 59 59 59 58 58 57 57 57 57 56 56 56 55 53
55 53 48 46 45 41 45 45 49 50 52 54 57 57 56 57 58 60 60 60 61 61 60 59 60 61 61 60 60 58 57 58 57 57 57 57 57 57 58 57 56 56 55 55 55 55 54 53 54
54 49 42 41 40 40 45 43 50 53 55 53 53 54 57 57 58 58 59 59 59 59 59 59 59 59 60 59 58 57 56 56 56 56 55 54 54 55 55 55 55 55 54 53 53 52 52 52 51
50 50 43 39 38 40 44 41 49 54 55 54 53 55 56 56 56 57 57 58 58 59 60 59 59 59 58 57 57 56 55 56 55 54 53 53 53 53 54 54 54 54 53 53 53 52 51 51 51
49 46 49 41 38 39 42 47 54 54 54 53 52 54 53 54 56 57 58 58 58 58 58 59 58 56 56 56 57 57 56 54 53 53 53 52 53 53 54 53 52 52 52 51 51 50 50 51 50
52 51 45 42 38 36 41 41 47 50 51 51 51 51 52 53 55 55 55 55 56 55 55 55 56 56 55 55 55 55 54 53 53 52 52 52 52 51 51 50 51 50 50 50 49 48 49 49 49
47 45 42 44 41 40 38 44 49 50 50 49 50 51 52 52 53 54 54 53 53 53 54 54 54 54 54 54 54 53 53 53 52 51 51 51 51 50 49 49 49 48 48 49 49 49 48 47 48
49 46 45 42 38 35 37 42 51 50 50 51 50 50 52 52 53 53 53 53 53 53 53 53 53 53 52 52 52 52 51 51 50 50 50 50 49 49 48 48 47 48 48 49 48 47 48 47 47

GFSSGP_sfc_temp_069.txt.gz
Temp
88 95 97 88 75 79 73 73 82 78 80 86 88 86 83 85 79 70 88 92 93 91 91 88 81 81 81 81 81 80 80 80 80 80 80 80 80 80 80 80 80 80 80 80 80 80 80 80 81
96 94 91 86 72 66 71 80 77 81 84 88 87 86 85 78 87 85 87 91 94 93 94 90 81 81 81 81 80 80 80 80 80 80 80 80 80 80 80 79 79 79 79 79 79 79 79 80 80
94 95 84 82 79 65 72 80 80 82 86 85 83 88 85 79 88 90 92 94 94 94 93 85 81 81 81 80 80 80 80 80 79 79 79 79 79 79 79 79 79 79 79 78 78 79 79 79 79
92 90 90 77 73 78 80 83 83 82 84 86 87 81 87 92 89 93 94 95 94 94 92 83 81 81 81 80 80 80 79 79 79 79 79 79 79 79 79 78 78 78 79 79 78 78 78 79 79
93 89 78 76 77 81 86 87 86 82 84 84 86 80 81 87 93 94 93 95 93 94 92 88 81 81 81 80 80 80 79 79 79 79 79 79 79 79 78 78 78 78 78 78 78 78 78 78 78
83 88 76 72 77 82 87 89 88 86 86 85 83 84 82 90 90 92 94 94 95 93 93 89 81 81 81 81 80 80 79 78 78 78 78 78 78 78 78 78 78 78 78 78 78 78 78 78 77
80 81 76 77 77 78 83 91 86 85 85 84 89 82 85 87 92 93 94 96 95 94 94 88 88 83 81 80 79 78 78 78 77 77 77 77 77 77 77 77 77 77 77 77 76 76 76 76 76
84 82 77 79 76 76 86 87 87 86 85 88 90 82 81 89 92 94 95 94 94 94 95 87 89 83 84 81 77 77 76 76 75 75 76 75 76 77 76 76 75 75 75 75 75 75 75 76 75
88 77 74 77 78 80 86 83 86 88 85 86 87 87 90 91 92 92 91 92 92 93 94 91 89 85 83 81 78 75 75 75 76 76 76 80 83 81 79 74 75 75 75 75 75 76 76 77 77
81 76 78 86 86 83 84 85 84 82 83 83 83 86 88 88 88 87 87 86 89 89 91 87 86 84 83 85 81 78 81 83 85 85 85 85 83 81 81 77 76 77 76 78 78 78 78 80 83
83 76 84 84 88 88 84 84 87 82 79 85 84 85 85 85 86 87 88 89 90 90 89 91 91 85 86 83 84 86 86 85 84 85 85 84 83 83 82 81 80 79 78 80 81 81 81 80 81
78 85 85 84 83 86 83 87 81 84 84 87 89 90 85 85 86 87 89 90 91 87 85 87 88 87 86 84 85 85 84 84 83 82 83 82 81 81 81 80 79 78 79 79 79 79 80 80 81
78 82 82 84 82 84 86 82 82 82 87 86 87 87 85 86 87 89 90 90 88 85 84 85 87 86 85 84 84 83 83 83 81 81 81 81 79 79 79 79 78 78 78 78 78 78 78 79 80
81 81 80 81 81 81 80 79 78 84 86 83 84 84 85 85 86 87 86 85 86 84 83 84 85 86 86 84 82 81 81 80 79 79 79 80 79 79 78 78 77 77 77 77 77 77 76 77 78
78 74 76 78 79 78 81 74 75 85 82 82 82 84 84 84 85 84 85 84 86 85 84 84 84 86 85 83 80 79 79 80 79 79 80 78 77 78 77 76 75 76 76 76 75 76 75 74 76
72 73 66 74 75 75 74 69 79 82 81 80 82 84 82 83 84 86 85 85 86 85 83 82 83 84 83 81 80 81 80 80 79 79 78 78 77 77 76 74 74 74 73 73 72 72 71 71 72
71 65 64 65 75 74 70 70 74 80 79 79 82 83 82 81 83 85 85 85 85 84 83 80 81 82 82 81 81 81 80 80 79 79 78 76 75 76 75 74 73 73 72 72 71 70 70 69 69
65 64 67 64 68 72 70 69 77 77 77 78 81 82 81 80 81 84 83 84 84 84 83 82 81 81 81 80 80 79 79 79 79 79 78 77 76 74 73 73 72 72 70 70 69 69 69 68 68
72 70 66 65 70 67 69 73 76 81 77 73 76 79 81 80 83 83 82 83 82 83 82 81 80 81 80 77 76 76 75 76 76 76 76 75 75 74 72 72 71 71 68 68 68 67 65 65 67
71 68 67 69 68 66 64 67 75 78 76 74 75 77 79 81 82 81 80 80 81 81 82 81 80 80 79 78 79 79 79 78 77 75 74 74 73 73 72 71 70 70 68 67 66 65 62 63 66
69 67 66 64 65 65 64 62 72 72 74 74 75 75 78 80 80 80 79 79 79 79 79 80 81 79 79 79 78 76 76 73 72 72 72 73 73 72 71 71 70 69 67 65 65 64 62 59 62
64 71 66 66 61 56 67 55 68 71 71 73 74 74 74 76 80 80 78 77 78 78 80 80 80 81 79 78 75 73 71 70 74 74 74 73 73 72 71 70 69 68 67 65 65 66 64 61 58
66 70 68 66 64 63 63 57 67 69 67 69 70 70 71 74 77 78 78 78 79 79 78 79 79 79 79 78 74 72 71 73 74 73 71 71 72 72 71 70 68 67 66 65 64 63 62 62 60
70 67 66 65 64 53 64 59 64 65 64 66 69 69 70 71 75 78 79 79 78 78 76 75 76 77 77 75 75 72 69 70 70 70 69 69 70 69 70 69 67 66 64 63 63 62 60 60 60
67 64 55 53 51 53 61 58 64 65 64 64 66 67 69 71 72 74 74 73 73 73 72 73 73 73 75 75 73 73 70 69 68 68 68 67 66 66 66 66 65 64 63 62 61 60 59 59 58
64 65 58 47 52 57 59 55 61 65 67 68 69 69 70 70 71 71 72 73 74 73 74 74 73 73 74 74 73 72 70 67 68 67 66 65 65 65 65 64 63 63 62 62 61 60 59 59 58
62 58 64 59 61 54 61 62 64 66 66 67 67 67 66 68 69 70 71 72 72 72 72 72 72 72 71 71 71 71 70 68 66 65 66 64 65 64 63 62 61 61 61 60 59 58 57 58 57
63 66 56 59 48 47 57 58 60 60 62 65 65 65 66 68 69 69 69 69 71 70 70 71 70 69 69 69 69 68 68 67 66 65 64 63 63 62 61 60 60 60 59 59 58 57 58 57 56
59 60 60 59 58 51 50 56 67 65 65 65 65 66 66 67 68 69 69 70 69 70 69 69 69 68 68 67 67 66 66 66 65 64 63 63 62 62 60 60 59 59 58 58 57 57 56 55 55
63 63 63 55 53 57 54 54 67 68 67 67 65 65 65 66 66 67 68 69 70 69 69 68 67 66 66 65 64 64 64 64 63 63 63 63 61 61 60 59 58 57 57 57 56 54 55 53 51

GFSSGP_sfc_temp_072.txt.gz
Temp
86 89 88 82 66 66 65 67 76 73 75 81 85 82 75 76 72 60 79 86 87 83 83 82 81 81 81 81 80 80 80 80 80 80 80 80 80 80 80 79 80 80 80 80 80 80 80 80 80
86 94 84 75 65 59 64 74 71 75 80 82 84 82 78 72 80 78 78 87 88 87 85 81 81 81 81 80 80 80 80 80 80 80 80 80 80 80 80 79 79 79 79 79 79 79 79 80 80
86 93 75 71 68 58 64 74 74 79 83 82 80 83 79 75 84 81 84 88 89 83 83 81 81 81 80 80 80 80 80 79 79 80 80 80 80 80 79 79 79 79 79 79 79 78 79 79 79
86 81 79 68 65 61 74 75 78 79 81 84 83 75 80 85 83 84 88 89 87 83 80 80 80 80 80 80 80 79 79 79 79 79 79 79 79 79 79 79 79 79 78 79 79 78 78 79 79
84 77 69 68 70 76 81 82 80 77 79 81 81 75 73 82 87 87 87 90 86 84 81 80 81 81 80 80 80 79 79 79 79 79 79 79 79 78 78 78 78 78 78 78 78 78 78 78 78
74 78 67 65 64 79 81 83 83 81 81 80 79 77 74 83 84 85 88 87 89 85 83 81 81 80 80 80 80 79 79 78 78 78 78 78 78 78 78 78 78 78 78 77 77 77 77 77 77
72 70 67 69 64 72 80 86 80 79 78 79 83 74 76 80 84 87 87 88 88 87 85 81 79 79 80 79 79 78 78 78 77 77 78 77 77 77 77 76 76 76 76 76 76 76 77 77 76
75 72 68 70 64 70 81 84 85 79 76 85 85 74 70 81 86 87 87 87 87 85 85 84 79 80 76 75 78 77 76 76 76 76 77 77 77 76 76 75 75 76 76 76 76 77 77 78 77
83 66 64 70 73 74 82 79 82 83 80 80 80 80 84 86 87 85 83 84 87 87 84 81 79 78 77 76 75 75 76 77 77 76 77 75 71 71 70 75 76 77 77 78 78 78 78 79 79
72 65 70 80 79 77 80 80 79 77 76 76 78 80 84 84 83 81 80 79 81 82 82 83 79 78 75 80 73 71 73 71 73 74 73 71 70 69 73 73 77 78 78 79 79 79 78 76 70
75 67 77 79 83 84 80 80 82 76 71 77 75 77 80 80 79 80 81 81 81 83 83 79 78 79 79 75 71 71 72 71 70 71 71 70 71 68 67 65 65 64 73 67 69 68 67 67 67
67 78 81 81 76 80 78 82 78 77 74 81 81 81 79 77 78 79 80 83 82 81 79 80 78 79 77 73 72 71 70 69 67 68 69 66 64 65 65 64 64 63 63 64 64 63 66 66 68
69 73 79 82 77 81 83 77 75 76 80 80 83 81 77 77 79 81 82 85 81 77 77 79 79 77 75 73 71 69 67 67 66 66 68 65 63 63 63 64 63 62 63 62 62 62 63 64 65
76 75 77 77 78 80 77 75 75 78 81 78 78 76 77 77 79 79 78 79 78 77 76 77 77 76 74 71 69 66 66 65 65 64 65 67 64 63 63 62 62 61 61 62 62 61 61 62 63
75 68 69 70 72 74 76 70 69 79 78 76 75 74 76 77 78 77 78 77 77 76 76 75 75 75 72 69 67 65 65 67 64 64 66 66 65 64 62 61 60 60 61 62 61 61 61 60 63
67 66 58 66 70 69 71 62 72 78 74 73 74 74 73 75 77 76 78 78 77 75 73 73 78 73 70 68 66 66 67 65 64 64 63 66 66 65 62 60 59 61 60 59 59 58 57 57 57
63 55 58 63 70 67 64 62 70 75 76 73 71 73 74 73 74 75 77 76 76 74 72 70 71 72 70 69 67 67 67 64 64 64 63 65 66 66 61 61 60 61 59 58 58 57 56 54 55
58 59 61 60 64 64 59 58 68 73 73 71 70 71 71 72 73 75 76 75 75 73 72 71 70 70 69 66 66 64 64 64 64 64 64 66 64 65 61 60 60 60 58 56 56 55 55 54 54
69 64 61 61 67 62 59 62 67 72 70 68 65 68 70 72 74 75 74 73 72 72 70 69 69 68 66 63 62 61 60 62 62 63 66 66 64 65 61 58 59 58 56 55 56 54 52 51 53
70 65 60 61 66 63 61 60 66 69 69 67 67 67 68 69 72 71 71 71 71 70 70 69 69 68 66 64 64 63 62 62 62 62 63 64 64 63 63 59 57 57 54 55 54 52 50 50 52
67 63 63 62 63 63 59 55 61 68 69 70 69 67 68 68 70 70 69 68 68 68 68 69 69 68 66 66 64 63 62 61 59 60 60 62 64 63 61 60 57 56 54 52 52 52 50 47 49
60 70 67 65 58 50 60 45 58 62 64 67 65 65 65 67 70 72 70 67 67 67 68 69 69 68 68 66 63 61 58 56 59 59 59 60 63 62 62 60 58 56 54 53 52 56 50 48 45
62 67 62 62 57 55 54 47 53 62 60 60 61 63 62 66 68 69 68 68 69 69 67 68 68 68 67 66 63 60 58 59 60 59 59 59 60 61 61 60 58 55 53 52 52 51 50 48 46
68 63 62 59 55 44 56 52 50 53 56 58 60 61 62 63 65 68 69 69 68 67 66 65 66 66 66 64 63 60 58 58 57 57 56 56 56 56 58 59 56 54 53 52 51 50 49 48 47
63 56 44 41 41 42 57 52 49 56 58 59 59 59 60 61 64 64 64 64 64 63 63 65 64 62 64 63 62 62 59 58 55 56 54 54 53 53 54 55 53 52 52 52 50 49 48 47 46
58 56 47 39 41 45 55 46 47 59 61 62 62 61 61 61 62 63 63 62 62 63 63 63 63 61 63 63 61 61 60 56 55 54 53 52 52 52 54 54 53 53 53 51 50 48 47 47 46
58 50 58 51 52 45 50 51 55 60 59 60 59 59 58 59 60 61 62 62 61 60 61 62 62 61 61 61 60 59 57 56 54 54 54 52 53 56 54 53 52 51 51 51 49 47 47 47 47
59 61 49 50 40 37 49 47 46 52 54 58 56 55 57 59 59 59 59 60 60 60 60 60 61 60 59 59 58 57 56 56 55 54 52 52 52 53 52 51 51 50 50 50 48 46 47 47 47
54 53 54 52 50 40 38 41 56 55 57 56 56 58 58 58 59 59 59 59 60 60 59 59 59 58 57 57 56 54 54 55 54 53 53 52 52 52 51 51 50 50 49 49 48 47 47 47 47
58 56 57 45 44 47 42 40 60 59 60 59 57 59 58 59 58 59 59 59 59 58 58 57 57 56 56 56 54 54 54 53 51 51 52 52 51 51 51 50 49 49 49 48 47 46 48 47 46

GFSSGP_sfc_temp_075.txt.gz
Temp
82 84 78 74 61 59 56 62 68 67 69 72 77 73 68 68 67 57 74 78 79 78 80 80 81 81 81 81 81 80 80 80 80 80 80 80 80 80 79 79 79 79 80 80 80 80 80 81 80
80 85 76 68 56 56 56 65 65 69 74 76 78 74 70 66 74 73 73 79 80 79 79 79 81 81 81 80 80 80 80 80 80 80 80 80 80 80 80 79 79 79 79 79 79 79 80 80 80
82 85 68 61 61 53 59 65 68 73 76 75 74 75 72 69 76 74 78 82 82 79 79 80 81 80 80 80 80 80 80 80 80 80 80 80 80 79 79 79 79 79 79 79 79 78 79 79 79
78 74 70 60 61 63 65 66 72 73 75 79 75 68 76 77 77 79 82 80 78 77 77 79 80 80 80 80 79 79 79 79 79 79 79 79 79 79 79 79 79 78 78 78 78 78 78 78 78
75 67 59 57 64 68 69 74 73 72 74 75 76 67 69 76 81 81 82 79 75 75 77 79 80 80 80 80 79 79 79 79 79 79 79 79 79 79 79 79 78 78 78 78 77 78 78 78 78
67 67 57 52 57 68 73 75 75 72 73 75 72 69 68 76 79 80 82 79 79 76 78 79 80 80 80 80 79 79 79 79 78 78 78 78 78 78 78 78 77 77 77 76 77 77 77 77 77
65 61 57 59 59 66 74 76 72 72 71 72 76 66 68 73 79 81 81 81 79 78 78 77 78 79 79 79 79 78 79 78 78 79 78 77 77 77 76 76 76 76 77 77 78 78 78 78 78
69 64 60 58 58 64 74 77 78 74 69 78 77 65 63 73 80 81 80 81 79 78 76 74 74 74 73 74 78 77 76 77 77 78 77 77 76 76 76 76 77 77 78 79 79 79 79 79 79
74 60 57 61 64 69 75 73 76 76 75 74 73 72 76 78 80 78 75 76 79 78 76 75 75 72 72 72 75 75 77 78 77 76 77 72 66 67 68 76 78 79 79 79 79 78 78 77 75
66 57 63 72 70 72 74 74 74 72 70 69 71 75 79 80 77 75 74 77 75 75 75 76 73 72 72 76 69 67 70 67 67 68 67 66 65 65 69 72 75 76 76 77 76 76 75 70 64
67 62 71 75 77 76 75 73 75 70 64 70 69 72 76 74 74 74 75 80 75 75 76 75 73 74 74 72 67 64 65 65 64 65 64 64 64 62 61 60 60 60 68 62 64 62 62 62 62
63 69 71 73 74 76 74 76 71 71 70 74 74 74 73 72 73 74 74 76 76 76 74 76 74 74 70 68 66 65 64 63 62 62 64 61 59 60 59 58 58 58 58 59 58 58 60 61 62
65 65 69 75 73 72 76 72 72 71 73 75 76 75 72 71 72 74 75 78 76 72 72 72 73 71 68 67 64 63 62 61 61 61 62 60 59 58 58 57 57 57 58 57 57 57 58 59 60
68 67 68 71 70 70 71 69 73 72 74 74 73 70 70 71 72 73 75 73 72 71 72 73 74 69 68 65 64 61 60 60 60 59 60 62 58 58 57 57 57 56 57 57 57 57 57 57 58
69 64 65 65 67 65 69 65 66 73 73 72 70 67 70 71 72 72 73 71 71 70 71 70 70 68 65 63 62 61 62 62 60 60 62 61 59 58 57 56 56 55 57 57 57 57 57 56 58
62 60 53 62 65 65 65 57 65 72 73 70 70 66 68 70 71 71 73 72 72 69 69 71 74 67 64 64 62 62 62 61 59 59 59 62 62 59 57 56 56 56 57 55 55 54 54 53 53
55 48 52 57 65 63 61 57 63 66 69 68 66 66 69 69 70 71 73 72 71 69 68 67 66 66 65 64 63 62 61 59 58 58 59 61 62 61 57 57 56 57 55 54 54 53 51 51 51
48 50 53 53 60 61 56 56 60 64 67 68 70 65 65 68 69 70 70 71 70 69 68 68 65 64 64 61 59 59 59 58 58 58 59 61 61 62 58 57 56 56 54 53 53 51 52 50 50
59 55 54 55 62 58 54 57 61 66 65 66 67 63 61 64 68 70 70 70 68 67 66 66 64 62 61 58 58 57 58 58 58 59 61 61 60 61 58 56 56 55 54 53 52 50 49 49 48
60 55 51 55 62 58 55 57 63 65 65 66 66 66 64 59 63 66 69 67 67 63 65 64 65 63 62 60 59 59 57 57 58 58 60 61 61 61 59 56 55 54 52 52 51 49 47 46 47
59 54 50 53 55 60 57 53 57 62 64 66 65 66 65 65 62 61 63 65 64 62 62 64 64 63 62 63 59 58 57 57 56 56 57 59 61 60 59 57 55 54 51 50 49 48 47 44 45
54 63 62 57 51 44 55 40 50 56 58 58 58 58 60 62 62 64 63 62 63 63 63 64 64 63 64 63 59 58 56 55 55 55 56 57 59 59 59 57 55 53 51 50 49 53 48 44 43
55 61 59 57 51 47 48 42 46 53 51 52 54 58 59 60 61 64 63 64 64 63 63 64 63 62 63 60 59 57 55 54 55 55 55 54 56 57 57 56 54 52 50 49 48 48 46 45 43
62 57 54 51 47 38 47 45 43 47 50 50 52 55 58 60 60 61 62 63 62 61 62 62 62 61 60 59 58 57 56 55 53 53 52 52 52 52 54 55 52 51 49 49 48 47 46 45 43
56 47 37 36 35 36 49 44 45 50 52 53 53 53 56 56 56 58 58 58 58 58 59 61 60 60 60 59 57 56 55 53 53 52 50 50 49 50 51 51 50 49 49 49 48 46 45 44 43
50 48 38 34 33 39 51 40 44 53 54 55 55 54 55 55 55 57 58 57 57 59 58 59 59 58 58 57 57 55 55 52 52 52 50 49 49 49 51 51 50 50 50 49 47 45 44 44 43
51 46 53 45 45 38 42 43 50 52 53 53 52 54 53 54 54 55 55 55 55 55 56 57 56 56 56 55 53 52 52 52 51 51 50 49 49 53 52 51 49 49 49 48 47 44 43 44 43
52 56 45 42 35 32 41 38 40 46 49 51 50 50 52 54 54 54 54 55 55 55 55 56 56 55 55 54 52 52 51 51 50 49 49 49 49 49 49 48 48 47 47 47 45 43 43 43 43
50 47 48 47 43 36 33 37 48 49 52 50 50 52 53 53 53 53 54 55 55 55 55 54 55 55 53 53 51 51 50 50 49 48 48 48 48 48 48 48 47 47 46 46 44 43 43 42 43
51 49 49 39 40 41 35 36 52 53 54 54 52 54 53 53 53 54 53 52 52 52 53 53 53 53 53 52 51 50 49 48 47 46 47 47 47 47 47 47 46 46 46 45 44 43 44 42 44

GFSSGP_sfc_temp_078.txt.gz
Temp
81 81 76 71 61 58 54 59 64 64 66 69 71 71 66 65 65 57 71 75 77 76 79 80 81 81 81 81 80 80 80 80 80 80 80 80 80 79 79 79 79 80 81 80 80 80 80 80 80
78 83 73 65 56 54 54 61 63 67 71 70 72 69 67 63 71 67 69 76 78 77 78 78 81 80 80 80 80 80 80 79 80 80 80 80 80 80 79 79 79 79 79 79 79 79 79 79 79
81 82 67 60 58 53 55 62 65 70 72 73 70 71 68 66 73 71 75 77 78 77 78 79 80 80 80 80 80 79 79 79 79 80 80 79 79 79 79 79 79 79 79 78 78 78 78 78 78
76 72 68 59 56 61 61 65 69 70 72 76 72 66 70 75 75 75 78 78 75 75 75 79 80 80 79 79 79 79 79 79 79 79 79 79 79 79 79 79 79 79 78 78 78 78 78 78 78
71 65 57 54 58 63 65 69 70 69 71 71 71 65 65 72 77 78 77 77 74 73 76 78 80 80 80 79 79 79 79 79 79 79 79 80 79 79 79 78 78 78 77 77 77 78 78 78 78
65 65 54 51 57 65 66 71 71 70 69 69 68 65 66 73 75 75 77 75 76 74 76 78 80 80 80 79 79 79 79 78 78 78 77 78 78 78 78 77 77 77 77 78 78 78 79 78 78
64 59 55 56 58 62 70 72 69 69 68 68 71 62 64 69 76 76 75 75 76 76 76 76 77 78 79 79 79 79 79 78 79 78 78 77 77 76 77 77 78 78 79 79 79 79 79 79 79
66 62 58 58 58 61 72 73 75 72 68 74 73 62 61 72 75 77 76 74 74 74 74 71 73 73 73 74 78 78 78 78 78 78 77 77 77 77 77 77 78 78 79 79 78 78 78 77 77
71 57 54 59 61 65 72 71 72 74 72 70 71 69 73 78 75 74 72 71 72 73 71 71 71 71 71 72 75 76 78 78 77 76 76 71 64 65 67 76 77 78 77 77 77 76 75 73 72
63 55 57 68 70 68 72 73 74 72 67 65 66 70 78 76 74 72 70 69 69 70 71 71 70 69 70 75 68 66 69 66 65 67 64 62 62 63 67 70 74 75 73 74 74 73 71 67 60
64 59 63 71 73 76 72 71 73 68 62 67 68 69 75 73 73 72 72 72 71 72 72 71 69 70 70 70 64 62 62 61 62 63 61 61 61 59 58 57 56 57 65 58 60 59 59 59 59
62 68 68 70 72 73 71 74 69 68 69 73 72 74 73 72 73 71 70 73 70 70 71 72 71 68 67 65 63 62 61 60 59 60 60 58 56 56 55 56 55 55 55 55 55 55 57 58 59
63 65 66 69 69 69 71 68 69 68 70 71 72 73 73 73 70 71 72 72 72 70 70 71 70 66 65 63 61 60 60 59 58 58 59 57 56 56 56 55 55 54 55 54 54 55 55 55 56
67 66 67 68 67 65 68 66 68 69 70 70 71 68 68 69 70 69 70 71 69 69 69 68 69 65 64 62 60 59 59 57 57 56 57 59 56 56 56 55 54 54 54 54 54 54 53 53 53
67 60 62 64 66 63 63 63 61 68 70 68 67 65 67 69 70 69 70 68 69 69 69 69 67 65 63 61 60 58 59 59 57 58 59 59 57 56 55 54 54 53 53 55 54 54 53 53 55
61 59 52 60 64 63 64 55 64 68 69 65 63 63 66 68 70 67 71 70 70 69 69 67 72 65 62 61 59 59 59 58 57 57 57 59 58 57 55 54 54 53 53 53 53 51 51 51 50
54 46 50 55 63 60 59 54 64 65 67 65 65 63 65 67 65 66 70 71 70 69 66 65 65 63 62 60 59 59 58 57 56 55 57 59 59 59 55 54 54 54 53 52 52 52 50 50 50
45 48 51 51 58 57 54 56 60 62 65 66 66 66 64 68 66 67 69 69 69 68 66 65 63 61 60 58 57 56 57 56 55 56 57 60 59 59 55 54 54 53 52 52 51 51 50 49 48
56 53 52 53 59 57 54 55 60 63 62 62 62 63 62 64 65 67 69 66 66 66 66 64 62 60 60 56 56 55 55 55 55 56 59 59 58 59 56 54 54 53 52 51 51 49 48 48 46
57 52 49 53 58 56 53 54 59 62 63 64 64 63 60 60 63 64 67 64 67 65 65 61 63 60 60 58 57 57 55 55 55 55 57 57 58 58 57 54 54 53 51 51 50 48 46 45 45
54 51 49 51 53 55 52 50 54 59 61 63 64 62 61 59 60 60 63 64 61 61 61 62 61 60 59 59 56 54 55 54 54 54 55 56 58 57 57 55 53 52 50 50 49 47 45 44 43
50 59 56 53 49 43 52 40 47 52 55 57 56 55 56 56 60 61 62 60 62 62 63 63 62 61 61 58 57 56 55 54 53 54 54 55 56 57 57 56 53 51 49 48 47 50 45 42 42
54 59 56 52 47 45 45 42 46 49 48 50 50 52 53 55 59 60 60 61 61 60 59 60 59 59 59 58 57 55 53 53 53 52 53 52 53 53 54 53 52 50 48 47 47 46 45 43 42
58 52 49 47 44 37 45 44 42 45 48 48 49 51 53 55 55 58 59 60 59 58 58 58 58 59 59 57 55 54 54 53 51 50 50 50 49 50 52 53 50 49 48 47 47 45 44 43 41
52 46 37 36 35 35 45 42 46 47 49 51 51 49 52 51 52 55 56 55 55 55 56 57 57 56 56 56 55 54 53 51 51 50 48 48 48 48 49 49 49 48 48 47 46 45 44 43 41
48 47 39 34 32 38 46 38 45 48 51 52 52 51 51 51 51 52 53 53 54 55 55 56 55 54 54 54 52 51 51 49 49 49 47 47 47 47 48 49 48 48 48 47 46 43 43 42 41
50 45 51 43 39 36 39 41 47 48 48 49 49 50 50 50 50 51 52 52 52 53 53 54 54 53 53 52 51 49 49 50 49 48 47 46 46 51 49 48 47 46 46 46 44 42 41 41 41
51 55 45 42 34 31 36 35 39 43 45 47 47 48 49 50 50 50 52 52 52 53 52 53 54 53 52 50 50 49 48 48 48 47 47 46 46 47 46 46 46 45 45 45 43 41 41 40 40
50 47 48 46 40 34 31 36 45 47 48 47 47 49 50 50 50 51 51 52 52 52 52 52 53 53 52 51 49 48 47 47 46 45 45 45 45 45 46 46 45 44 44 43 42 41 41 40 40
50 48 47 38 38 36 32 35 48 49 51 52 49 51 50 51 52 52 50 50 50 49 50 49 50 50 50 49 48 47 47 46 44 44 45 45 45 45 45 44 44 44 43 43 41 41 42 40 39

GFSSGP_sfc_temp_081.txt.gz
Temp
79 79 75 71 60 56 52 57 61 61 63 66 68 69 65 62 64 56 68 73 75 74 77 80 81 81 81 80 80 80 79 79 79 79 80 79 79 79 79 79 79 80 80 80 80 80 80 80 80
77 80 72 64 55 50 53 59 61 65 68 66 69 67 64 61 68 65 68 75 76 76 76 77 80 80 80 80 80 79 79 79 79 79 79 79 79 79 79 79 79 79 79 78 78 78 78 78 79
79 80 66 59 55 52 53 61 63 68 69 69 67 67 65 64 68 67 71 76 76 75 76 78 80 80 80 79 79 79 79 79 79 79 79 79 79 79 79 79 79 79 78 78 78 78 78 78 79
74 70 66 58 57 63 61 63 66 67 68 71 68 63 66 71 70 71 75 76 73 73 73 79 80 79 79 79 79 79 79 79 79 79 79 79 79 80 79 79 79 79 78 78 78 78 78 78 78
69 65 56 53 58 62 63 68 67 67 68 69 68 62 62 70 73 74 74 75 72 72 74 78 80 80 80 79 79 79 79 79 79 79 79 79 78 78 78 78 78 78 77 78 78 78 78 78 79
63 63 53 51 56 63 64 68 68 67 67 67 66 63 63 70 72 73 75 73 75 73 75 77 79 80 79 79 79 79 78 79 79 78 77 77 78 78 78 78 77 78 78 78 79 79 79 79 79
62 58 54 54 56 60 67 69 66 67 65 66 69 60 61 64 72 74 73 73 74 75 74 74 76 78 79 79 79 78 79 79 78 78 78 77 77 77 77 78 79 79 79 78 78 77 78 78 77
64 61 55 55 57 60 69 71 73 69 66 70 70 60 59 67 72 73 72 71 71 72 73 70 73 75 73 74 79 79 79 78 78 77 76 77 77 77 77 77 78 78 78 77 76 76 75 75 75
67 55 52 57 58 63 69 69 70 71 68 68 71 67 70 72 72 70 67 70 70 71 69 70 70 71 71 71 75 77 78 78 77 75 75 69 62 63 66 75 76 76 76 75 75 74 73 70 71
62 53 57 65 65 65 69 70 70 69 66 64 65 69 74 71 70 67 66 68 69 68 68 69 69 69 69 74 68 66 69 65 66 64 61 60 59 62 65 69 73 73 73 73 73 71 69 64 57
62 57 62 63 69 70 69 68 70 66 62 67 67 67 72 69 69 69 67 68 68 68 69 69 68 68 68 67 63 61 60 60 61 61 59 59 58 56 55 54 54 54 64 56 58 57 56 56 56
59 65 65 66 68 69 69 70 66 69 69 74 71 72 72 68 69 69 68 68 67 67 69 69 69 67 66 63 61 62 59 58 57 57 58 55 53 54 53 53 53 53 53 54 53 53 54 55 56
60 63 66 67 65 67 68 65 67 66 69 69 71 73 72 71 69 71 71 70 68 67 68 69 67 65 64 63 61 59 58 57 56 56 56 55 54 53 53 53 53 53 53 53 52 52 53 53 54
64 64 63 65 63 64 65 63 67 66 66 67 69 69 70 70 69 66 67 68 68 68 68 67 67 63 63 65 64 58 57 56 55 54 55 56 55 54 53 53 53 53 52 52 52 52 51 51 51
64 59 58 62 63 62 64 61 60 64 67 64 64 62 65 67 68 68 70 68 69 68 66 65 64 62 63 66 60 57 56 57 55 55 56 56 55 55 54 53 52 51 52 53 53 52 52 51 53
59 56 51 60 62 60 61 53 62 64 64 63 64 62 64 67 69 67 68 69 69 67 64 64 66 63 64 64 58 57 56 55 55 55 55 57 57 55 53 53 52 52 52 52 51 50 50 50 49
51 45 48 54 64 60 58 52 61 62 63 64 61 63 64 64 63 64 69 69 68 68 62 62 65 67 63 58 57 56 56 55 54 54 55 57 57 56 54 53 52 52 51 50 51 50 49 48 49
43 46 48 50 57 58 53 53 57 60 63 63 64 64 65 66 66 67 69 69 69 66 64 65 64 61 58 56 54 53 53 53 53 54 55 57 56 56 53 52 52 52 51 50 49 49 48 47 46
52 51 50 52 58 54 52 53 55 58 58 59 61 62 62 62 62 65 65 63 63 62 62 62 60 57 58 53 53 52 53 52 52 53 57 57 56 56 54 52 52 51 51 50 49 48 47 47 45
55 54 49 52 57 54 51 53 56 60 60 60 61 60 60 59 60 62 62 61 64 62 62 60 62 58 57 55 53 54 53 52 53 53 55 55 56 55 55 53 52 51 50 49 49 47 45 44 43
52 49 48 50 52 53 51 49 54 58 60 61 60 59 59 59 59 59 59 59 59 59 61 62 59 58 57 57 54 53 54 52 53 52 53 54 55 55 54 53 51 50 48 48 47 46 45 43 42
47 56 54 51 47 41 48 39 47 51 54 55 53 53 53 56 57 58 59 58 59 60 60 60 59 58 58 56 56 55 54 53 52 53 52 53 54 54 54 53 51 49 47 46 46 48 44 42 42
52 56 53 50 44 41 44 41 46 46 48 50 50 51 52 54 55 56 57 61 58 58 58 58 57 57 57 55 55 53 52 51 50 51 52 51 51 52 53 52 50 48 46 46 46 45 43 41 41
54 50 47 44 42 36 44 44 43 45 49 47 47 49 52 53 53 55 56 57 57 55 55 55 56 55 55 54 53 53 51 50 49 49 48 48 48 48 50 51 49 48 46 46 46 45 43 42 40
49 43 34 33 36 36 44 41 47 48 48 49 50 46 48 49 49 53 54 53 54 54 54 55 54 53 54 54 53 52 51 49 49 48 47 47 47 47 47 48 47 46 46 46 45 43 42 41 39
45 44 36 32 31 37 43 37 46 46 48 49 50 48 48 47 48 50 51 52 52 53 53 53 53 52 52 51 50 49 49 48 47 47 46 45 45 45 46 47 46 46 46 45 43 41 41 40 39
46 42 50 41 37 35 38 41 45 46 46 47 47 48 47 47 48 49 50 50 50 51 51 52 52 50 50 49 49 48 48 48 47 46 45 45 45 49 47 45 45 44 44 44 42 40 40 40 39
51 52 44 39 34 32 35 34 40 41 43 45 45 45 46 47 48 48 50 50 50 50 50 51 52 51 50 49 48 47 46 46 46 45 45 45 44 45 45 45 44 44 43 43 41 39 39 39 38
48 44 45 44 39 33 31 37 44 45 46 45 45 46 47 47 48 49 49 49 49 49 50 50 50 50 49 48 46 45 45 45 44 44 44 44 44 44 44 44 43 43 42 42 40 39 39 39 39
50 45 48 39 38 34 32 37 46 46 48 48 46 48 47 49 50 49 48 48 48 48 48 48 48 49 48 47 46 45 45 44 43 43 43 43 43 43 43 42 42 41 41 41 39 39 39 38 38

GFSSGP_sfc_temp_084.txt.gz
Temp
78 77 74 70 59 55 51 56 59 60 61 63 66 66 64 61 63 55 67 71 74 74 76 78 81 81 80 81 80 80 79 79 79 79 79 79 79 79 79 80 80 79 80 79 79 79 79 80 80
76 78 71 63 54 49 52 57 60 63 66 64 67 65 61 59 65 64 66 73 75 75 76 77 80 80 80 80 80 79 79 79 79 79 79 79 79 79 79 79 79 79 79 78 78 78 78 79 79
77 78 65 58 52 50 52 60 62 65 66 66 64 65 63 62 65 66 69 74 75 73 75 77 80 80 80 79 79 79 79 79 79 79 79 79 79 79 79 79 79 79 79 79 78 78 79 79 79
73 69 65 56 53 59 60 61 65 65 66 68 66 61 64 68 67 69 73 74 72 71 73 79 80 80 79 79 79 79 79 79 79 79 79 80 79 80 80 80 79 78 78 78 78 78 78 79 79
68 64 55 52 56 60 62 66 66 64 65 66 66 61 60 68 70 72 73 74 71 70 73 77 80 80 79 79 79 79 79 79 79 79 80 78 78 77 79 78 78 78 78 79 79 79 79 79 79
63 62 52 50 55 62 62 67 67 65 64 64 64 62 60 66 69 71 73 71 73 72 74 76 79 80 79 80 79 79 79 79 78 78 77 78 78 78 78 78 79 79 79 78 78 78 78 78 78
60 57 53 53 55 59 63 67 65 65 64 64 67 60 58 62 69 72 71 71 73 73 72 72 75 78 79 79 79 78 79 79 78 78 78 77 77 78 78 79 79 78 78 77 77 77 77 77 76
62 59 53 54 56 58 66 68 70 67 64 67 68 60 57 64 70 70 70 69 69 70 71 70 72 73 73 74 78 79 79 78 78 77 77 77 76 77 78 77 78 77 77 76 76 75 74 74 74
65 54 50 56 57 61 65 67 68 69 66 65 68 66 67 70 69 68 69 70 69 69 68 69 70 71 71 73 76 78 78 78 77 75 73 67 61 62 67 75 76 76 75 75 74 73 71 69 70
60 52 55 63 63 63 64 67 68 67 64 63 63 66 69 69 67 67 68 68 69 67 67 68 69 69 70 74 67 67 70 65 64 62 59 58 58 62 66 70 73 73 73 72 72 70 68 62 55
60 55 61 64 66 66 65 63 66 64 60 66 65 64 66 66 66 66 68 68 68 68 68 70 70 68 68 66 63 62 61 61 60 59 57 57 56 54 53 52 53 53 62 54 56 54 54 54 54
56 63 63 65 66 65 63 65 64 63 66 70 69 68 67 65 66 66 66 67 65 66 71 71 69 67 66 64 65 64 59 58 57 56 56 54 52 52 51 51 51 51 51 52 52 51 53 53 54
57 61 65 66 64 65 65 63 63 63 66 66 68 69 67 67 67 69 69 68 66 66 70 70 68 64 63 65 64 60 58 57 55 54 55 53 52 51 51 51 51 51 51 52 51 51 51 51 52
61 63 62 63 63 63 64 62 62 63 65 64 67 67 67 68 68 66 67 66 65 67 67 69 66 62 62 62 63 62 56 55 54 53 54 54 53 52 52 52 51 51 51 51 51 50 50 50 51
62 57 57 60 61 62 63 59 60 62 63 61 61 62 65 66 66 68 69 67 67 68 68 66 65 62 61 60 61 59 56 55 53 53 54 54 54 54 52 52 51 51 51 52 51 51 50 50 52
56 55 49 57 60 61 60 52 59 60 61 59 58 58 62 64 67 67 68 69 70 68 65 64 66 62 61 59 62 57 56 54 53 53 53 55 55 54 52 52 51 51 51 51 50 50 50 49 49
49 43 45 52 59 58 57 52 59 59 60 59 58 61 64 64 65 66 67 69 68 67 64 62 60 60 60 61 59 56 55 54 53 52 53 55 56 55 53 52 51 51 51 50 51 48 49 48 48
40 43 46 48 55 55 51 52 55 58 59 59 58 61 63 66 69 67 67 67 67 65 62 59 59 60 58 55 53 52 52 51 51 52 53 55 55 55 52 51 51 50 50 48 48 48 46 46 45
49 49 48 51 56 53 51 52 55 57 56 57 57 58 59 63 62 63 64 64 64 59 57 56 58 55 58 53 52 51 51 50 50 51 55 55 54 54 52 50 50 50 50 49 49 47 46 45 43
53 52 49 50 55 53 49 51 53 56 57 58 59 57 59 59 58 59 60 58 61 59 57 56 58 57 56 55 52 52 51 50 51 51 52 54 54 54 53 52 50 49 48 48 47 47 44 43 43
53 51 51 50 51 51 49 47 51 57 58 60 59 59 59 60 59 56 56 57 57 56 56 58 58 58 55 54 52 51 51 50 51 51 52 53 54 54 53 51 50 49 47 47 46 45 45 43 41
45 54 52 50 46 41 47 37 46 50 54 55 53 54 56 56 56 57 57 56 57 55 56 58 58 57 56 54 54 53 53 52 51 51 51 52 52 52 52 52 50 48 46 45 45 46 43 42 42
49 52 50 48 43 41 42 40 45 46 49 51 51 53 52 52 54 56 56 57 56 57 57 57 56 55 55 53 53 52 51 50 49 49 50 49 49 50 51 50 49 47 45 45 45 43 42 41 41
51 48 46 43 41 34 42 42 42 45 48 46 48 51 51 52 52 52 54 55 54 55 55 54 55 53 53 52 52 51 50 49 48 48 48 47 46 47 48 49 47 46 45 45 44 43 42 41 39
48 43 33 32 32 33 41 40 49 47 47 48 50 49 46 46 48 50 51 52 53 54 53 54 53 53 52 52 51 51 50 48 48 47 46 46 45 45 46 46 46 45 45 45 43 42 41 40 39
43 43 35 30 29 35 42 37 45 48 47 48 49 46 46 46 47 49 50 51 52 52 52 52 51 50 50 50 49 48 48 47 46 46 45 45 45 44 45 45 45 44 44 44 42 40 40 39 38
42 40 45 38 34 33 37 42 45 46 46 46 46 46 45 46 47 48 49 50 50 50 50 51 50 49 49 48 47 47 47 47 46 45 44 44 43 48 45 44 44 44 43 43 41 39 39 38 38
47 50 42 37 31 29 33 34 41 41 43 44 43 44 44 45 45 46 47 48 48 48 48 49 50 49 48 48 47 47 45 45 44 44 44 44 43 44 44 43 43 42 42 41 39 38 38 37 37
45 42 42 43 39 34 34 37 45 44 45 44 44 45 45 45 46 46 46 47 47 47 48 48 48 48 48 47 45 44 44 44 43 43 43 43 43 42 43 43 42 41 41 40 38 38 38 37 37
50 47 47 38 36 34 35 38 45 45 46 47 45 46 45 47 47 46 46 46 47 46 47 47 47 47 46 45 44 43 43 43 42 41 41 42 42 42 41 41 41 40 40 39 38 37 38 36 36

GFSSGP_sfc_temp_087.txt.gz
Temp
81 82 80 76 67 66 62 65 70 69 71 75 75 74 73 72 70 66 73 77 80 79 82 82 81 81 81 81 80 80 79 79 79 79 79 80 80 79 80 81 80 80 80 79 80 80 80 80 80
80 80 77 70 64 60 63 68 67 71 72 73 75 73 72 68 71 69 73 77 80 81 82 82 81 80 81 80 80 79 79 79 79 80 80 80 79 79 79 79 79 79 79 79 79 79 79 80 80
81 81 73 66 61 59 62 68 71 73 72 74 72 73 72 69 70 73 77 79 81 80 81 82 80 80 80 80 79 79 79 79 80 80 80 80 80 80 80 79 79 79 79 79 79 79 79 79 79
78 76 73 64 61 66 68 72 72 70 72 74 74 70 73 75 74 77 79 80 80 80 82 81 80 80 80 80 79 79 79 79 79 80 80 80 80 81 80 80 79 79 79 79 79 79 79 79 79
75 71 64 60 63 69 71 73 72 72 74 73 74 69 70 74 77 78 78 79 78 80 82 82 80 80 80 79 79 79 79 79 79 80 80 78 78 79 79 79 78 79 79 79 79 79 79 78 78
69 70 61 58 61 68 72 72 70 72 73 72 72 71 71 74 75 77 79 79 80 79 80 82 80 80 79 79 79 80 80 79 79 78 77 78 79 78 79 79 79 78 78 78 78 78 78 77 76
67 64 61 61 62 66 71 72 72 73 72 73 76 70 69 71 76 78 78 79 80 80 80 81 82 81 79 79 79 79 80 78 78 78 78 78 78 79 79 78 78 77 77 77 76 76 76 76 75
69 66 60 62 62 65 73 72 75 75 72 75 78 71 69 74 76 77 77 78 79 79 80 81 81 82 82 81 79 79 79 78 78 77 77 77 77 78 78 77 77 76 76 75 75 74 74 74 74
70 61 58 63 62 68 70 71 71 74 72 73 76 75 76 76 75 73 73 73 75 77 78 79 79 80 79 80 79 79 78 77 77 75 73 73 75 77 78 76 76 76 75 74 73 72 70 69 70
66 59 61 68 69 69 71 69 71 72 69 72 72 72 73 72 73 71 70 70 71 73 76 78 78 78 79 77 80 78 78 77 76 74 73 74 75 76 76 75 74 73 73 72 71 69 69 70 71
65 61 65 69 71 72 70 68 71 69 65 73 73 69 70 70 71 73 72 74 73 75 75 77 76 78 78 78 77 77 76 74 73 73 72 73 70 70 70 68 68 69 67 69 69 70 69 68 69
61 65 68 70 70 68 68 70 69 68 73 72 77 73 70 69 70 72 73 74 74 73 74 76 74 73 74 71 74 74 74 73 72 70 71 70 69 69 69 68 67 67 68 68 68 68 68 68 69
61 65 68 70 68 70 70 68 70 67 71 72 73 71 70 71 72 74 75 75 74 72 74 75 71 72 73 72 73 68 72 72 71 70 69 69 68 68 67 67 67 67 68 69 68 68 68 69 69
65 66 68 67 67 69 69 68 69 70 68 69 68 69 71 71 71 72 72 71 72 74 74 73 70 71 73 70 72 72 70 69 68 67 68 68 68 68 67 67 66 67 67 67 67 68 67 66 69
63 60 62 64 65 66 69 65 65 70 69 66 66 68 69 71 72 72 73 73 73 73 74 71 70 71 68 65 67 68 65 66 67 67 68 68 67 68 67 66 66 66 67 67 67 67 67 66 66
58 60 53 63 63 65 66 59 67 67 68 65 65 66 66 69 72 74 74 75 74 73 72 71 70 69 67 64 65 66 67 67 67 66 66 66 67 66 66 66 65 65 66 66 66 66 66 65 65
54 51 51 57 63 61 63 59 65 65 66 64 64 65 66 68 69 72 74 75 73 72 71 69 68 66 64 67 65 67 66 66 66 66 66 66 66 67 67 66 65 65 65 66 66 65 65 65 65
47 49 51 55 59 60 58 59 61 63 63 64 63 63 64 67 70 72 71 73 72 73 71 69 67 64 63 61 65 63 64 64 64 66 66 67 66 66 66 65 64 65 64 64 64 65 64 63 62
53 51 54 56 60 58 57 58 60 61 60 62 62 62 64 68 71 71 71 70 71 68 67 65 63 63 63 63 62 63 64 64 64 64 67 67 67 66 65 65 65 63 64 64 64 63 62 61 61
53 49 53 54 57 59 54 56 59 59 60 62 64 64 64 67 69 70 70 69 68 66 65 63 63 61 66 65 64 66 65 64 66 63 64 65 65 66 65 64 63 63 62 61 61 61 61 60 60
51 48 51 54 55 57 54 54 57 61 63 63 65 66 65 64 67 66 65 66 66 64 62 63 62 63 63 65 62 61 62 61 61 62 63 63 65 65 65 64 64 63 62 61 60 59 58 59 58
46 56 55 50 51 48 54 46 52 57 60 61 63 63 64 64 65 65 64 63 64 63 62 62 62 65 65 63 64 64 64 64 65 66 65 65 64 65 64 64 63 62 61 60 60 59 59 57 58
51 55 53 49 48 49 48 49 53 53 55 59 60 60 62 63 64 63 63 63 64 61 62 63 65 66 65 65 65 64 63 63 63 63 63 63 62 61 61 62 61 61 60 60 59 58 57 58 58
52 50 48 46 46 42 48 49 49 52 57 56 57 59 60 61 61 61 62 62 61 62 61 62 64 64 63 62 62 62 62 62 62 61 62 61 60 60 60 59 60 60 59 58 58 57 56 56 56
50 49 37 38 40 40 46 45 53 55 56 57 57 58 58 58 59 58 58 59 59 59 60 60 62 60 61 61 62 62 61 61 62 61 61 59 59 59 58 58 58 58 56 56 56 56 55 55 54
46 47 37 33 36 41 45 42 51 54 53 53 55 56 55 55 55 56 57 58 60 59 59 60 60 58 60 61 61 61 59 59 59 58 58 58 58 58 56 57 57 56 56 56 56 55 55 54 53
46 43 51 43 41 40 44 49 54 51 51 51 52 53 53 52 53 54 56 58 58 59 59 59 58 58 59 59 59 58 58 57 56 56 57 57 57 56 55 56 56 56 56 55 54 54 54 53 53
50 52 44 43 37 37 41 42 48 49 50 50 51 52 51 51 52 53 54 55 56 57 57 58 59 58 58 58 58 56 56 56 55 56 55 55 55 55 54 54 55 54 54 54 52 52 52 51 51
49 47 46 47 43 39 39 45 52 52 51 50 52 52 52 51 52 52 53 54 54 56 57 57 58 57 56 56 55 55 54 54 55 55 54 55 54 54 54 53 53 52 52 53 52 51 51 49 50
52 50 48 43 39 40 39 46 54 52 52 53 52 51 52 52 51 52 53 54 55 55 56 56 56 56 54 54 54 53 54 54 55 55 54 54 54 53 52 52 51 51 51 51 50 50 50 49 48

GFSSGP_sfc_temp_090.txt.gz
Temp
86 91 92 84 73 74 71 73 81 77 79 85 87 83 82 83 79 72 82 86 88 88 90 86 81 81 81 81 81 80 80 80 80 80 80 80 81 81 81 80 80 79 79 79 80 80 80 80 80
89 88 87 82 71 67 72 80 76 81 83 86 84 83 81 79 81 78 81 86 89 89 90 88 81 81 81 80 80 80 80 80 80 80 80 80 80 80 80 79 79 80 79 79 79 80 80 80 80
89 89 81 76 73 68 71 78 81 82 84 84 82 84 83 79 81 84 88 88 90 89 89 86 81 81 80 80 80 80 80 80 80 80 80 80 80 80 80 80 80 79 79 79 79 79 79 79 79
86 85 84 71 69 76 77 82 82 81 81 83 85 80 83 85 84 88 88 90 89 89 89 82 80 80 80 80 80 80 80 80 80 80 80 80 80 80 80 80 80 79 79 79 79 79 79 79 79
87 83 73 70 72 79 83 83 83 80 83 83 85 78 80 83 87 88 88 89 89 89 90 86 80 80 80 80 79 79 79 79 80 80 79 78 80 79 79 79 79 78 79 79 78 78 78 78 78
77 81 69 67 72 80 84 84 82 83 84 84 82 83 80 86 85 87 89 89 90 88 89 87 80 80 80 80 79 79 79 80 79 78 78 78 79 79 79 79 78 78 78 78 77 77 77 76 76
75 73 70 72 72 76 81 85 82 82 83 83 88 81 81 83 87 89 89 91 90 89 89 89 88 83 79 79 79 80 79 78 78 78 78 79 79 79 78 78 77 77 77 76 76 76 76 75 74
78 75 70 71 70 72 83 82 83 84 82 87 90 80 77 85 87 89 89 89 89 89 89 90 89 88 87 85 79 79 78 78 78 78 78 78 78 78 77 77 77 76 76 75 74 74 74 74 73
78 68 66 69 71 75 81 79 81 85 81 84 86 87 88 87 87 86 85 86 87 87 89 90 90 89 88 85 83 79 77 78 77 76 74 78 83 82 81 76 76 75 74 74 73 72 73 73 72
73 67 69 78 80 78 81 81 80 79 80 80 82 82 88 85 84 83 82 82 84 85 87 89 89 88 87 87 87 85 81 85 85 83 83 84 83 82 80 76 74 73 73 72 72 73 75 78 81
74 67 76 76 80 81 80 78 82 79 75 83 82 82 83 82 83 82 83 83 85 87 87 88 88 88 86 87 88 81 86 85 84 83 83 83 81 81 81 78 78 77 76 80 79 79 79 79 80
67 75 75 76 79 77 77 82 78 81 83 85 86 87 82 81 82 83 83 85 85 86 85 87 86 86 86 87 85 84 85 84 83 82 83 81 81 80 80 79 78 78 80 79 79 79 79 79 80
68 72 76 77 78 77 80 77 79 78 84 81 82 84 81 83 84 86 87 87 87 85 85 86 82 84 86 84 84 84 83 84 83 82 81 82 79 79 79 79 78 78 79 79 79 79 79 79 79
72 71 73 76 75 77 74 77 76 82 85 79 80 81 82 83 83 85 86 86 86 86 85 86 77 80 86 83 82 83 83 82 81 80 80 80 80 79 78 77 77 77 79 79 79 78 77 77 78
69 64 70 72 74 72 76 71 71 83 80 78 78 81 80 81 81 81 85 85 87 87 86 84 77 78 83 79 74 72 80 80 79 79 80 79 79 79 78 78 77 77 79 78 78 78 79 77 78
64 66 58 70 73 74 72 64 77 81 79 79 78 79 75 77 81 84 85 86 87 86 81 80 75 77 80 72 67 71 77 78 78 78 78 78 77 78 77 77 76 77 77 77 78 78 77 76 76
62 56 60 64 73 71 68 66 78 78 77 77 78 77 76 77 80 84 85 86 86 85 84 81 74 76 72 67 64 65 76 78 78 78 77 76 75 76 77 77 76 76 76 77 77 76 76 75 74
55 56 59 60 69 68 66 66 71 73 74 74 76 77 77 78 78 82 81 80 79 77 80 78 74 72 66 64 73 73 75 76 76 77 77 77 76 76 77 76 75 76 74 75 75 75 74 73 72
59 58 58 64 70 66 65 67 68 69 71 72 74 75 76 77 77 77 75 76 76 81 76 75 72 70 67 66 71 72 72 74 74 76 77 76 77 76 75 75 75 74 73 74 72 73 70 72 72
57 55 56 63 69 67 66 65 72 69 71 73 73 75 76 79 81 80 78 82 76 74 77 75 72 70 68 69 73 77 77 76 76 74 75 76 76 76 75 74 73 73 72 70 70 69 69 69 70
55 54 56 57 63 66 66 63 67 69 70 71 75 77 78 76 77 80 81 79 78 77 77 76 72 69 71 75 74 75 74 73 72 72 73 73 74 74 74 74 74 74 72 71 69 69 66 66 69
49 60 59 58 54 50 64 53 64 70 68 69 72 73 73 73 73 77 77 75 76 77 76 76 73 73 75 76 74 73 73 72 74 74 74 75 75 75 74 74 73 73 72 70 69 69 67 65 64
54 62 59 56 55 57 56 56 65 67 65 69 72 74 72 73 71 74 76 75 76 77 74 74 73 74 74 74 74 74 74 75 75 75 73 74 73 73 73 73 72 71 71 70 70 68 67 66 65
63 58 56 54 51 44 58 57 61 64 67 71 74 73 72 73 73 74 74 73 73 72 71 71 73 73 72 71 75 74 73 73 73 72 72 72 72 71 70 70 70 70 68 67 67 66 65 65 65
58 54 41 37 34 40 57 54 63 66 67 68 67 70 71 71 70 70 69 69 69 68 69 70 71 69 70 73 73 72 71 72 72 72 72 70 70 69 68 69 68 68 66 66 65 64 64 64 62
57 54 43 33 43 48 54 51 61 65 64 64 64 69 68 67 69 69 68 69 69 69 69 68 67 66 69 71 71 72 71 71 72 71 71 71 70 69 66 66 67 66 65 65 64 64 62 62 62
50 49 46 38 51 51 54 59 65 62 61 61 63 64 63 64 66 66 67 69 69 69 67 65 63 64 67 71 71 72 71 69 68 68 68 68 68 66 65 65 65 65 64 63 62 61 61 62 61
55 55 41 41 40 42 51 53 58 60 62 61 61 63 61 61 63 64 66 66 68 68 66 65 66 67 70 71 71 69 69 69 67 68 66 65 65 64 63 63 63 62 62 62 61 60 60 59 59
55 51 53 53 49 45 47 52 63 62 62 62 64 63 61 62 63 64 65 67 66 67 66 66 69 68 68 68 67 67 67 67 67 66 65 64 64 64 63 62 60 60 60 61 60 60 59 57 57
58 55 56 48 45 50 51 52 63 63 63 64 63 60 61 61 61 63 64 65 66 67 68 68 68 67 66 66 66 66 65 64 64 64 65 65 63 62 61 60 59 60 59 59 58 57 58 56 55

GFSSGP_sfc_temp_093.txt.gz
Temp
87 92 95 87 74 75 71 76 85 81 82 90 91 87 85 87 81 71 85 92 91 90 89 85 81 81 81 82 80 80 80 80 80 80 80 81 81 80 80 80 79 80 80 80 80 80 80 81 81
93 94 89 83 70 68 73 84 80 84 88 90 89 87 86 81 87 82 84 91 92 93 90 87 81 81 81 80 80 80 80 80 80 80 80 80 80 80 80 80 80 80 80 80 80 80 80 80 80
91 93 80 77 73 68 73 83 84 87 89 88 86 90 88 82 87 86 91 92 93 92 92 85 81 81 80 80 80 80 80 80 80 80 80 80 80 80 80 80 80 80 80 79 79 79 79 79 79
88 86 84 72 70 78 80 86 86 85 87 90 90 84 89 90 89 93 92 94 93 92 92 81 80 80 80 80 80 80 80 80 80 80 80 80 81 80 80 80 79 79 79 79 78 78 79 79 79
89 84 73 71 73 81 87 89 86 84 86 87 89 83 83 90 93 92 92 93 92 92 90 85 80 80 80 80 80 80 80 80 80 80 80 80 80 79 80 79 79 79 78 78 78 78 78 78 78
78 81 69 68 74 82 88 91 87 86 88 88 86 86 83 90 90 91 93 93 94 91 89 85 80 80 80 80 79 79 80 80 79 78 77 78 79 79 79 78 78 78 77 77 77 77 76 76 76
74 74 70 72 74 78 84 92 86 86 87 87 92 84 85 87 91 92 93 94 93 93 90 88 86 82 79 79 80 79 79 78 78 78 79 79 79 78 78 77 77 77 76 76 76 76 75 75 75
79 75 70 73 72 74 86 88 89 88 86 95 95 84 79 88 91 93 93 93 93 92 92 91 89 87 85 84 79 79 78 78 78 78 78 78 78 77 77 77 76 76 75 75 74 74 74 74 74
82 69 66 70 73 77 86 82 89 92 88 89 92 92 94 91 91 90 89 90 90 91 92 93 91 90 89 87 82 79 78 77 77 76 77 78 82 82 79 76 75 75 74 74 74 75 76 75 75
73 67 69 80 81 79 84 84 86 81 83 84 88 89 93 89 89 86 86 86 87 88 91 93 93 91 89 89 85 82 82 84 85 84 83 86 85 82 79 75 74 74 74 74 75 77 77 80 82
75 67 76 80 82 83 82 82 87 80 78 85 85 86 88 87 87 86 87 88 88 90 91 92 93 92 91 91 88 84 87 87 86 85 86 86 82 81 80 76 77 77 77 81 80 80 80 81 81
69 76 78 78 82 79 78 84 82 83 84 90 89 92 88 86 86 87 88 89 89 89 89 92 92 91 89 91 85 87 87 86 85 84 85 83 82 81 81 80 79 79 81 80 80 79 80 80 81
70 74 77 80 80 79 81 78 81 82 88 84 85 88 87 87 88 89 90 91 91 89 89 90 91 91 85 85 80 85 86 85 84 84 83 83 81 81 81 80 80 79 80 80 79 79 79 79 79
74 74 74 77 78 78 75 77 80 83 89 85 82 83 87 87 88 88 88 89 90 90 89 90 89 90 81 86 85 85 85 85 83 81 81 83 82 81 80 79 78 79 80 80 80 79 78 78 80
73 66 70 72 75 74 78 71 73 84 87 84 82 85 87 87 88 87 89 89 91 91 90 89 85 88 85 82 77 72 78 81 81 81 82 81 80 80 79 79 78 79 80 80 79 79 79 78 79
66 67 60 72 73 75 74 62 76 84 84 81 81 84 85 86 87 88 88 90 92 92 89 89 82 83 85 77 72 73 70 72 78 80 80 80 79 79 78 77 77 78 77 77 77 77 76 76 76
65 57 61 66 77 73 71 65 75 83 83 80 83 81 84 82 83 85 83 88 91 92 90 86 81 78 71 65 64 63 66 70 75 78 79 78 78 79 78 77 77 77 76 76 75 75 74 74 74
57 59 63 62 71 73 69 67 73 80 80 79 82 82 82 82 82 81 81 88 91 91 88 83 75 77 68 62 64 69 71 75 76 78 78 79 77 77 77 77 76 76 74 74 74 74 75 72 72
61 59 58 64 71 68 67 67 71 77 76 76 79 80 80 82 86 88 87 89 87 84 80 78 75 69 64 63 69 70 70 74 76 77 79 78 78 77 76 76 76 75 73 74 73 73 71 71 73
59 56 56 63 68 68 67 66 72 77 74 75 77 79 79 82 85 85 85 84 79 74 77 74 73 68 68 66 73 76 76 76 76 75 77 78 78 77 77 76 75 75 72 72 71 70 68 70 71
58 55 56 57 64 68 66 63 68 76 76 77 79 80 81 81 82 81 80 81 79 81 79 80 70 68 70 70 76 78 78 76 74 73 74 76 77 77 76 76 75 75 73 71 71 70 67 64 69
52 62 60 57 56 49 66 49 65 71 71 74 76 78 78 77 78 83 81 81 82 81 79 77 74 70 72 74 76 75 70 70 73 73 75 74 76 76 76 76 75 75 74 72 71 71 69 67 63
56 63 59 59 54 55 51 53 64 71 68 71 75 77 78 77 74 77 82 83 83 81 79 78 76 73 74 77 75 73 75 76 76 76 74 75 75 76 76 76 75 73 73 72 71 70 69 68 65
64 59 58 57 54 39 43 47 59 65 70 74 77 78 77 74 73 73 77 79 78 78 79 77 76 75 75 76 76 75 74 74 73 73 73 73 74 74 74 74 73 72 71 70 69 68 67 66 66
60 52 34 34 36 40 49 43 51 64 75 76 78 80 79 77 75 74 74 73 73 72 74 74 72 71 73 74 75 75 70 74 74 74 74 73 72 71 71 71 70 69 67 67 66 65 65 65 63
55 53 37 30 36 38 55 47 56 66 71 72 73 76 75 73 74 73 73 73 72 71 72 73 72 71 73 74 73 70 71 74 75 75 75 74 73 72 70 69 69 68 67 66 65 64 63 63 62
55 44 47 35 39 36 49 60 66 69 67 69 70 70 69 71 72 71 71 72 71 71 71 72 71 71 71 71 69 72 72 73 72 72 72 71 70 68 67 67 66 66 66 65 63 62 62 62 61
55 54 41 40 35 35 49 49 52 63 65 66 67 67 66 67 68 69 71 71 72 71 71 71 70 68 69 69 71 71 73 72 71 71 69 68 67 66 65 65 65 64 64 64 63 61 61 60 60
55 52 51 52 50 36 42 50 65 63 66 66 67 66 65 66 66 68 69 70 69 69 69 69 70 69 69 68 70 71 70 71 71 69 68 67 66 66 64 64 62 62 62 62 61 61 60 59 58
61 55 57 41 40 50 43 50 69 68 68 68 65 64 65 65 66 67 67 68 68 68 68 69 69 67 68 70 70 69 69 68 68 67 67 67 65 64 63 63 61 61 61 61 59 58 59 57 56

GFSSGP_sfc_temp_096.txt.gz
Temp
84 88 86 80 64 64 62 68 78 76 77 84 85 82 79 78 73 61 78 85 84 81 81 81 81 81 82 80 80 80 80 80 80 80 81 81 80 80 80 80 80 80 80 80 80 80 80 81 80
86 91 82 73 61 58 63 76 75 78 83 85 85 82 80 74 80 76 77 86 87 84 82 80 81 81 81 80 80 80 80 80 80 80 80 80 80 80 80 80 80 80 80 79 79 79 80 80 79
84 91 73 66 64 59 63 76 78 83 85 84 81 83 80 75 80 79 85 87 88 84 84 81 81 80 80 80 80 80 80 80 80 80 80 80 80 80 80 80 80 79 79 79 79 79 79 79 79
81 78 76 63 62 70 72 79 82 82 84 87 85 77 81 85 83 84 87 89 87 83 80 80 80 80 80 80 80 80 80 80 80 80 80 81 81 81 80 80 79 79 79 78 79 79 78 79 78
80 75 61 63 65 72 79 82 82 79 81 83 84 75 74 84 86 87 87 89 86 79 79 79 80 80 80 80 80 80 80 80 80 80 80 80 80 79 79 79 78 78 78 78 78 78 78 78 77
68 72 60 59 66 75 81 84 69 76 83 84 82 76 75 84 83 85 88 87 87 81 81 79 80 80 80 80 79 80 80 80 79 78 77 79 79 78 78 78 78 77 77 77 76 76 76 76 76
67 65 62 64 66 72 79 85 79 80 81 83 86 74 76 80 84 87 87 87 87 84 80 78 78 78 79 79 79 79 79 79 79 79 79 79 78 78 77 77 77 76 76 76 76 76 76 76 76
70 66 61 64 65 67 81 75 70 74 77 85 85 73 70 81 85 87 87 86 85 84 81 79 77 77 76 77 79 79 78 78 78 78 78 77 77 77 77 76 76 75 75 75 75 76 76 77 77
77 60 57 62 66 70 82 79 73 70 77 81 80 82 84 85 86 84 83 83 83 84 83 82 79 79 79 77 77 77 78 77 77 77 77 76 70 71 71 74 75 75 75 75 76 76 76 77 77
66 58 61 72 75 74 80 79 78 66 72 78 76 85 85 84 83 81 80 79 80 81 83 83 82 81 80 82 75 73 75 73 73 73 71 71 70 70 71 71 74 75 76 76 77 77 77 75 67
68 59 69 73 77 79 77 78 79 68 70 77 75 80 81 81 81 81 81 81 80 82 84 85 85 84 81 80 77 76 77 77 73 73 73 73 70 68 65 62 64 62 71 66 69 68 67 67 66
64 71 73 74 77 76 74 79 76 63 63 76 79 84 82 80 80 81 81 82 82 82 82 85 85 84 82 81 78 78 77 74 71 71 73 69 66 66 65 63 64 64 65 66 66 64 66 67 68
66 69 73 76 76 76 78 73 74 75 78 78 82 76 81 81 81 83 84 84 83 82 81 82 83 81 81 81 77 76 73 73 71 70 72 69 66 66 65 65 64 65 65 64 64 64 65 65 67
69 69 69 72 72 74 72 72 74 76 80 77 78 76 80 81 82 83 81 83 83 83 82 83 83 82 77 75 76 76 73 72 70 68 68 70 67 66 65 65 65 64 65 65 65 65 64 64 65
70 62 65 67 70 68 73 66 68 77 81 75 73 76 76 82 83 83 80 79 83 83 83 83 81 80 78 70 71 70 73 72 69 69 70 69 68 67 66 64 65 65 65 66 66 66 65 64 66
61 62 52 65 68 70 68 56 69 77 77 77 75 75 76 81 83 85 83 79 80 84 83 82 81 73 72 68 64 65 71 70 71 72 71 72 72 70 67 65 63 64 64 64 63 62 62 62 62
59 50 55 60 71 69 65 58 69 75 76 75 76 75 78 79 82 85 80 77 77 78 83 79 76 67 65 63 63 63 66 68 69 69 67 71 71 70 67 65 65 65 64 62 63 61 61 59 59
52 52 56 55 64 67 63 61 68 72 74 73 75 76 75 79 80 76 79 76 78 76 84 77 73 65 63 61 60 63 65 65 67 66 66 69 67 69 66 64 64 64 62 60 61 60 60 59 58
58 55 53 58 65 61 59 62 66 71 70 70 72 76 74 77 79 74 76 73 73 79 81 73 69 63 61 59 59 60 61 65 64 66 68 67 66 67 64 63 64 63 61 60 61 58 58 57 57
57 54 52 58 63 61 59 59 66 69 69 71 70 71 69 72 78 75 74 77 78 73 74 70 67 63 61 60 60 59 66 65 65 64 66 66 66 66 65 63 62 61 59 59 59 58 55 55 57
55 53 52 53 58 61 57 54 60 69 72 72 72 74 74 72 76 77 72 75 75 70 69 70 66 64 63 62 64 67 67 65 62 62 62 64 66 65 65 64 62 61 59 57 58 58 56 52 54
48 58 58 53 50 42 57 41 55 63 66 71 70 69 66 69 73 78 73 73 68 67 73 71 68 66 65 66 65 66 62 61 61 61 61 63 65 65 65 64 63 61 59 58 59 61 56 54 51
52 55 52 53 50 47 48 42 52 59 61 65 68 69 69 69 66 71 74 73 72 72 73 70 67 66 67 66 65 63 62 62 62 65 62 61 62 64 65 64 63 61 60 59 58 56 55 54 52
62 54 50 49 46 36 46 43 42 53 60 65 66 69 68 69 66 66 69 75 75 73 72 69 66 66 66 65 64 61 61 62 63 60 63 59 59 61 64 65 61 60 58 57 56 56 55 53 52
56 45 32 31 33 34 46 40 43 53 58 64 63 58 69 68 64 65 65 65 66 68 68 69 66 65 65 64 65 62 62 65 65 64 63 62 59 58 59 60 59 57 56 56 55 53 52 51 50
51 45 35 26 31 34 42 36 43 53 58 66 67 71 68 65 65 65 64 62 64 66 65 65 66 65 65 64 62 62 63 61 63 65 64 63 58 57 58 58 58 58 57 56 54 51 51 51 49
51 42 45 35 36 34 36 44 51 56 62 62 61 60 59 61 62 63 63 64 63 63 64 66 66 65 64 63 62 62 62 64 63 64 63 58 57 60 57 57 56 56 56 55 53 50 49 49 48
54 51 38 37 31 29 40 46 47 55 58 60 59 57 58 60 61 61 62 63 63 63 64 64 64 62 62 63 62 62 64 63 63 62 58 56 56 56 55 55 55 55 54 53 51 48 49 48 47
51 50 47 43 39 34 35 42 58 56 59 58 57 57 58 59 59 60 60 61 60 61 62 61 62 61 61 63 60 63 63 63 62 57 56 55 55 55 55 55 54 53 52 52 49 49 49 48 47
58 53 54 38 37 38 36 40 60 61 60 59 57 57 57 59 59 59 59 58 59 60 63 63 64 63 62 63 62 62 61 58 56 55 55 56 54 55 54 54 53 52 52 50 49 48 48 47 46

GFSSGP_sfc_temp_099.txt.gz
Temp
81 82 75 70 58 56 52 59 67 73 71 74 79 76 70 69 69 59 74 77 77 76 79 81 81 81 81 81 80 81 81 80 80 81 80 80 80 80 80 80 80 80 80 80 80 81 80 80 80
79 81 73 65 54 48 52 65 67 72 76 78 80 77 71 67 74 72 72 78 79 78 79 79 81 81 80 80 80 80 80 80 80 80 80 80 80 80 80 80 80 80 79 80 80 80 80 80 80
79 82 65 58 54 50 53 65 72 78 77 79 75 77 72 67 74 73 78 80 79 78 78 79 80 80 80 80 80 80 80 80 80 80 80 80 80 80 80 80 80 79 79 79 79 79 79 79 79
74 71 67 56 54 61 65 70 77 77 80 80 76 70 74 78 76 77 82 80 78 77 76 79 80 80 79 80 80 80 80 80 80 80 80 80 81 80 80 79 79 78 79 79 79 78 78 78 78
71 65 55 53 57 65 71 73 75 71 68 72 76 68 68 74 81 82 81 79 75 75 77 79 80 80 80 80 80 80 80 80 80 80 81 80 80 79 79 78 78 78 78 78 78 79 77 77 78
62 64 52 51 58 67 71 73 73 69 70 75 73 70 67 76 80 80 81 76 77 75 77 79 80 80 80 80 80 80 80 80 79 78 79 79 79 79 78 78 77 77 77 77 76 77 77 77 78
60 56 53 56 59 64 70 73 66 64 64 67 74 67 69 73 79 81 80 76 77 76 75 75 76 78 79 79 79 79 79 79 78 79 79 78 78 77 77 77 76 76 76 76 77 77 77 78 79
63 59 53 56 58 60 73 74 70 67 64 68 76 67 64 74 79 80 80 77 75 75 74 69 71 73 72 76 78 79 79 79 79 78 78 77 77 76 76 76 76 76 76 76 77 78 78 78 78
69 53 51 56 60 64 75 69 71 71 69 69 70 72 78 81 81 77 77 75 74 75 72 72 71 72 72 73 76 78 78 78 78 77 77 73 66 67 69 74 75 76 76 77 77 76 77 76 76
60 52 55 65 67 67 72 71 70 65 66 66 68 79 81 81 79 77 75 72 73 72 73 73 73 73 74 78 71 70 74 70 69 69 68 66 65 65 69 71 75 77 77 77 78 77 76 70 63
60 55 63 67 70 71 70 72 75 67 62 63 61 72 78 79 77 76 75 76 74 75 75 75 75 76 75 74 72 71 70 68 67 68 67 68 66 63 60 60 61 60 69 63 66 64 63 62 62
56 64 66 67 71 71 69 72 70 68 68 68 69 66 78 77 76 76 75 75 75 76 77 78 78 77 75 74 72 71 71 68 65 66 68 64 61 60 58 58 58 58 59 60 60 60 63 64 63
56 62 67 68 68 69 71 67 69 66 70 69 70 72 68 74 76 75 77 78 78 76 78 79 80 78 76 74 72 72 68 69 66 65 65 63 61 59 59 59 59 59 60 60 60 61 61 62 63
61 63 63 65 66 68 66 66 69 70 70 69 71 72 73 73 73 72 71 78 78 77 78 80 80 79 77 73 74 74 69 67 65 64 65 65 61 61 60 60 60 60 60 60 61 61 61 60 61
62 55 58 60 63 63 68 61 64 71 73 69 71 70 72 72 73 76 76 77 79 80 76 79 76 78 74 72 71 70 70 68 65 66 65 65 63 63 62 60 60 60 60 62 61 60 60 60 62
55 52 44 57 61 64 62 51 63 71 72 69 67 68 69 72 76 80 74 75 79 80 76 76 77 71 71 68 66 70 68 66 66 69 69 68 68 65 64 61 60 59 60 60 59 58 57 57 57
49 41 46 51 62 60 57 54 63 69 70 71 66 69 72 67 71 69 75 70 76 79 76 73 70 67 64 64 63 62 64 67 68 64 64 66 66 66 62 62 62 63 61 60 60 57 57 56 56
45 44 49 47 56 59 55 53 61 65 68 69 70 70 72 74 74 71 75 71 70 76 78 72 68 64 62 61 61 61 62 63 65 64 64 65 64 64 61 61 60 60 58 57 58 57 56 56 56
52 49 47 53 60 55 54 54 57 61 65 63 64 65 73 74 75 72 71 70 70 71 73 69 67 62 61 59 59 58 60 63 64 64 66 66 63 63 61 59 59 58 58 56 57 56 55 54 53
52 48 46 52 58 54 53 52 58 61 61 67 66 65 67 70 67 68 69 69 70 69 71 66 65 62 62 61 60 60 60 62 64 63 65 64 63 62 62 60 59 58 57 56 56 55 52 52 52
50 46 47 47 53 53 50 47 51 59 61 66 66 67 66 66 63 64 66 67 67 68 70 65 63 62 62 62 60 60 61 62 60 61 61 62 64 63 62 60 58 57 56 55 55 55 53 51 51
44 54 53 50 44 35 48 36 46 52 58 60 63 64 63 65 64 66 67 66 66 67 68 66 63 62 62 61 60 59 62 62 60 60 60 61 63 62 61 61 59 58 55 55 55 56 53 51 50
49 56 52 50 42 37 42 35 42 50 52 54 59 62 63 65 64 66 70 68 66 66 67 66 64 63 62 62 61 60 58 58 57 58 60 60 62 61 62 61 59 57 55 55 55 54 52 50 49
55 51 48 46 43 30 39 38 37 43 45 52 58 63 63 61 62 63 66 66 65 65 67 66 65 64 64 63 62 59 59 58 56 57 57 60 57 61 62 60 57 55 54 54 53 52 52 50 49
53 43 30 28 30 31 43 37 38 47 53 54 55 58 59 61 60 61 61 62 63 65 65 65 64 63 63 62 59 60 60 58 58 58 57 58 56 59 59 59 55 53 53 53 52 51 50 49 47
48 43 32 24 28 32 38 33 42 50 54 57 59 59 57 56 57 58 59 59 61 62 63 64 63 62 62 60 59 59 59 58 59 59 61 57 60 58 58 57 54 54 54 53 51 48 48 47 46
47 42 42 33 34 33 35 39 46 51 52 52 53 54 55 55 56 56 57 58 59 60 60 62 63 63 63 61 57 58 58 58 57 60 57 58 57 59 57 54 53 53 52 51 49 47 47 47 45
48 49 38 36 30 25 40 42 43 48 49 50 51 50 52 56 57 56 56 57 57 58 59 61 62 63 62 62 60 58 59 60 61 58 58 57 57 56 53 52 52 52 51 50 48 46 46 45 44
46 44 45 42 37 32 30 38 54 51 53 52 51 53 51 55 55 55 55 56 57 57 61 62 62 60 56 57 60 60 60 60 58 58 57 56 55 52 52 52 51 51 50 49 47 45 46 45 43
52 47 49 36 35 38 37 37 53 53 53 52 51 53 52 53 54 54 54 54 54 55 58 56 59 61 61 62 59 59 59 55 58 56 53 52 51 52 52 51 50 50 49 47 46 45 45 43 43

GFSSGP_sfc_temp_102.txt.gz
Temp
79 80 72 68 56 54 50 55 63 66 69 74 76 75 70 66 68 58 70 74 75 75 79 80 81 82 82 81 81 81 81 80 80 81 80 80 80 80 80 80 80 80 80 80 81 80 80 80 80
77 80 70 62 52 46 49 59 63 68 73 73 74 70 68 64 71 66 67 75 77 77 78 78 81 81 81 81 81 80 80 80 80 80 80 80 80 80 80 79 79 80 80 80 80 79 79 79 80
78 79 64 57 52 48 51 61 66 74 76 78 72 72 69 66 71 70 73 76 77 76 77 79 80 80 80 80 80 80 80 80 80 80 80 80 80 80 79 79 79 80 79 79 79 78 78 79 79
72 68 65 54 52 57 60 62 71 73 79 76 75 67 70 73 73 72 76 76 74 74 75 79 80 80 80 80 80 80 80 80 80 80 80 80 80 80 79 79 79 80 79 79 78 78 78 79 79
69 63 54 52 55 60 65 69 73 72 73 72 74 65 65 72 75 76 75 77 73 72 75 78 80 80 80 80 80 80 80 80 80 80 80 79 80 79 78 78 78 78 78 79 78 78 78 79 79
61 61 50 50 57 64 65 69 71 69 69 70 68 66 65 72 74 75 77 75 75 74 76 78 79 79 80 80 79 80 80 80 80 79 79 79 79 78 78 77 77 77 77 77 77 78 78 79 78
57 53 50 52 55 60 67 68 64 63 67 65 69 65 66 68 75 76 75 74 75 75 75 75 76 78 79 79 79 79 79 79 78 79 78 78 78 77 77 77 77 77 77 77 78 78 79 79 78
61 56 50 52 55 58 71 70 69 69 67 70 74 66 64 71 74 74 74 73 73 73 73 68 70 73 72 76 79 79 79 78 78 78 77 77 76 76 76 76 76 77 77 78 78 78 78 78 77
65 51 46 52 57 61 70 66 69 70 69 70 72 69 75 78 76 72 70 69 70 71 68 68 68 69 70 72 76 78 78 78 77 76 76 71 65 66 68 74 76 77 77 77 77 78 76 75 75
57 48 52 62 64 63 68 68 67 65 63 64 67 73 77 78 73 69 68 65 67 67 68 68 68 69 71 76 71 70 75 70 68 67 64 63 62 63 67 72 76 77 77 77 77 76 73 67 59
56 52 60 64 67 68 67 68 71 63 59 64 64 69 71 71 74 70 70 68 68 68 69 69 69 71 72 71 70 68 66 66 67 66 64 63 63 60 59 59 59 58 67 60 62 61 60 59 59
52 61 62 63 67 67 65 70 66 65 68 70 70 68 68 68 72 71 70 70 69 68 70 71 72 72 72 71 70 67 67 63 64 64 64 61 58 57 57 56 56 57 57 57 57 57 59 59 59
53 57 63 64 64 65 67 65 66 65 69 71 72 71 69 70 66 66 71 74 72 70 72 72 73 73 71 70 69 68 65 64 64 65 63 61 58 57 57 56 56 56 56 58 57 58 58 58 58
57 58 58 60 61 63 63 63 65 68 68 67 68 67 67 66 67 66 68 74 73 73 73 74 74 74 73 70 70 69 64 64 64 63 63 61 59 58 57 57 57 56 57 57 57 57 57 57 57
60 52 55 58 59 59 63 58 58 69 68 65 66 68 66 68 68 69 69 74 75 76 75 75 75 75 72 69 68 67 66 66 63 62 62 64 60 59 58 57 56 57 58 58 58 56 56 56 58
53 50 43 55 58 60 59 46 60 67 67 64 63 65 67 67 70 74 74 75 74 77 75 77 77 74 72 70 65 69 65 66 64 63 63 65 62 61 58 58 58 58 59 57 56 56 55 54 55
46 40 43 49 59 58 55 47 59 63 64 65 63 63 66 69 70 69 73 70 70 73 75 75 73 70 67 64 62 61 61 65 65 62 62 63 62 62 59 58 57 58 58 57 59 56 56 55 54
41 41 45 45 53 56 52 49 55 60 61 61 64 61 65 68 71 70 70 70 70 71 72 71 68 66 66 63 62 61 61 61 66 65 62 62 61 61 59 57 57 57 56 55 57 55 53 53 53
49 45 44 49 55 52 51 51 53 58 56 57 59 61 62 68 74 71 68 69 69 70 69 69 67 65 63 61 61 59 59 59 62 63 64 63 64 61 58 58 57 56 56 55 55 53 54 52 51
49 45 44 49 54 52 50 50 53 56 56 58 59 58 63 63 66 65 67 68 70 70 68 69 68 63 63 62 61 60 61 60 63 62 63 62 62 61 61 58 57 56 55 55 54 53 50 50 50
48 45 44 45 50 51 47 46 47 54 56 59 60 61 64 63 62 66 65 67 66 69 69 67 63 64 63 63 61 60 59 58 58 60 61 61 63 61 61 59 58 56 54 54 54 53 53 50 49
43 53 51 49 44 37 47 34 41 48 51 54 54 54 58 60 63 64 67 65 66 68 69 66 63 63 62 61 62 61 60 58 56 57 59 60 61 60 61 59 58 57 55 54 54 55 52 50 49
49 55 50 49 45 39 41 34 38 45 47 49 52 54 57 61 63 64 66 65 68 66 65 63 62 62 61 62 61 60 59 58 57 57 58 59 59 60 59 58 56 55 54 54 54 52 51 49 48
57 50 46 44 41 31 37 35 35 39 43 47 52 55 56 62 63 64 65 67 67 66 64 63 62 62 61 61 60 59 57 55 56 56 55 56 56 57 61 59 58 57 53 52 51 50 49 48 47
52 41 30 26 29 29 38 35 35 44 48 48 49 52 53 54 58 60 61 62 63 65 64 63 62 62 62 61 59 58 57 57 56 56 55 54 55 55 56 55 56 52 51 51 50 49 48 47 46
45 43 32 22 28 30 39 32 39 48 51 51 52 52 54 54 55 57 61 61 62 65 65 64 63 62 62 59 58 58 59 57 58 57 57 55 56 57 56 56 53 54 52 51 49 47 46 45 44
44 38 42 33 35 30 36 42 47 52 51 50 50 52 51 52 54 55 58 60 61 63 63 63 62 61 60 58 58 58 58 57 57 57 57 56 57 58 56 55 53 51 52 49 48 46 46 45 44
45 46 37 37 29 22 34 38 39 47 47 48 49 49 51 52 53 54 56 56 56 57 59 61 61 59 58 58 58 56 58 59 58 56 54 56 53 55 53 52 52 50 49 47 46 44 44 44 42
43 41 43 39 38 31 26 34 48 46 50 48 48 50 50 52 52 51 52 53 55 56 57 58 58 60 60 60 61 60 59 59 58 57 56 52 54 52 53 51 49 49 47 46 45 44 44 43 42
49 44 44 35 34 38 35 34 47 46 48 50 50 51 52 53 54 53 53 54 54 55 58 60 60 60 59 60 59 58 58 54 56 54 51 55 51 50 50 49 48 48 47 45 45 45 44 43 42

GFSSGP_sfc_temp_105.txt.gz
Temp
77 77 72 66 55 53 48 53 58 63 66 69 70 72 70 67 66 57 68 72 74 74 77 80 81 81 82 81 81 81 81 80 80 80 80 80 80 80 80 80 80 80 81 81 80 80 80 80 79
75 78 69 61 51 45 49 56 59 66 71 70 72 69 67 63 67 66 67 73 76 76 77 78 81 81 81 81 81 80 80 80 80 80 80 80 80 80 79 79 80 80 80 80 79 79 80 79 79
76 77 63 56 51 47 49 58 63 69 73 72 69 69 66 64 67 67 70 75 76 75 77 79 81 81 81 81 80 80 80 81 80 80 80 80 80 79 79 80 80 79 79 79 79 79 79 79 78
70 67 63 53 50 55 57 61 66 71 71 74 74 65 68 71 68 70 74 76 74 73 75 79 80 80 80 80 80 80 80 79 79 80 80 80 80 79 80 80 79 79 78 78 78 79 78 78 78
66 61 53 51 53 58 60 66 72 70 71 69 71 63 63 70 72 73 73 75 72 71 75 78 80 80 80 80 80 79 79 79 80 80 80 80 80 79 78 78 79 79 78 78 78 79 79 78 77
59 59 51 49 54 62 64 67 71 70 66 67 70 66 65 69 70 71 73 72 74 73 75 78 80 79 79 80 79 79 79 79 80 79 79 79 78 78 78 78 78 77 77 78 78 79 78 77 76
55 52 48 49 52 59 66 68 63 67 66 67 69 65 61 65 70 72 70 71 73 73 73 74 75 77 79 79 79 79 79 80 79 79 79 78 78 77 77 77 77 77 77 78 78 78 78 76 76
58 55 48 50 52 56 67 68 68 66 67 70 70 62 58 65 72 71 71 70 70 71 71 68 70 72 72 75 79 79 79 78 78 79 78 77 77 76 76 77 77 78 78 78 78 78 77 76 75
62 49 44 49 54 60 68 66 67 69 66 69 71 67 70 70 71 69 68 68 69 69 66 67 67 68 69 71 75 78 78 78 78 77 76 71 65 66 67 74 77 78 78 78 77 77 76 74 73
55 47 50 59 61 61 66 66 65 63 63 64 67 69 70 70 69 67 66 67 67 65 66 66 66 67 69 75 71 70 74 70 68 66 63 62 62 62 67 72 77 77 77 77 76 74 72 65 57
53 48 57 60 64 65 65 65 67 60 57 63 64 66 68 67 68 67 67 68 67 66 68 67 67 68 69 70 68 66 65 65 64 63 62 61 61 60 58 57 57 57 65 58 61 59 57 56 56
50 57 58 60 63 62 62 67 64 62 65 69 68 68 70 67 68 67 67 67 65 65 68 68 69 70 69 70 68 65 65 63 62 63 62 59 56 56 56 56 55 55 55 55 55 55 56 56 56
50 54 59 61 60 61 63 61 63 63 68 69 69 69 68 68 67 68 69 68 67 66 68 69 69 70 69 69 67 65 63 63 63 62 61 58 56 55 55 55 55 54 55 55 55 55 55 55 55
55 56 56 58 59 59 60 59 62 64 66 65 67 66 67 66 66 66 67 68 68 69 69 70 70 71 69 68 67 66 65 63 62 60 60 60 57 56 56 55 55 54 55 55 55 55 55 54 54
57 50 53 53 57 57 58 54 56 64 68 63 63 64 66 66 66 65 68 69 71 71 71 70 70 72 69 68 68 66 66 64 63 61 61 60 58 57 56 55 54 54 55 56 55 54 54 54 56
50 48 41 54 56 59 56 45 58 63 61 62 61 59 63 65 66 68 69 70 72 72 71 72 74 72 70 68 67 66 64 62 62 62 61 61 59 58 56 55 55 54 55 55 55 54 53 52 53
44 38 41 47 57 55 53 46 56 62 60 60 60 58 63 63 65 69 69 68 71 72 72 71 73 71 69 68 65 61 60 64 63 63 62 60 60 59 57 56 55 55 55 54 56 52 53 52 53
39 39 43 42 51 53 49 47 54 57 57 57 57 59 58 64 65 69 69 69 68 70 69 70 71 71 70 64 60 58 57 58 61 64 65 63 60 59 56 55 55 55 53 53 53 53 52 52 52
46 43 41 47 53 49 47 48 51 55 55 54 54 55 57 61 68 71 69 69 66 66 67 70 69 70 66 62 60 58 58 57 58 62 65 63 60 59 57 54 55 54 55 53 53 52 52 50 49
48 44 43 47 52 49 47 47 51 53 54 56 55 55 56 58 62 68 67 66 67 66 67 67 68 67 65 63 61 59 59 59 60 61 62 63 63 60 58 57 54 54 53 53 53 53 50 49 48
47 44 43 44 50 49 46 42 46 51 53 56 56 56 55 56 60 62 64 65 66 66 67 68 69 66 63 62 61 59 58 59 58 60 61 61 63 62 61 59 57 56 55 53 52 52 52 50 48
41 51 51 48 44 36 46 32 42 48 48 50 50 50 52 54 59 62 63 64 65 65 67 67 65 63 63 62 62 60 59 57 57 56 54 57 62 60 60 59 57 55 53 53 52 53 50 50 49
47 52 48 45 40 39 39 34 35 44 42 45 49 52 54 54 59 61 63 65 65 67 65 62 63 62 62 62 62 60 59 56 55 55 57 58 60 60 59 57 56 54 53 51 52 50 50 49 47
54 48 43 41 37 29 35 35 32 38 44 46 48 50 51 53 58 60 64 66 66 67 64 62 62 62 62 62 61 61 58 56 54 54 53 55 56 58 58 57 55 57 52 51 51 49 49 47 46
48 40 30 25 26 30 37 35 35 42 46 49 46 47 52 53 56 61 60 62 64 63 64 63 63 61 62 61 60 59 57 56 55 54 54 54 55 55 55 57 56 51 51 51 49 48 47 46 45
43 39 33 23 25 29 39 32 39 50 51 53 52 52 55 56 58 58 60 60 60 63 63 63 62 62 61 59 58 58 57 55 55 56 56 56 56 55 57 55 53 53 51 51 48 46 45 45 44
43 35 39 33 35 29 34 43 46 53 52 52 51 50 51 53 55 56 58 60 61 63 63 63 62 61 60 59 59 58 56 56 56 57 58 57 57 57 56 54 50 52 50 49 48 46 45 44 42
43 44 35 34 29 27 31 34 38 45 47 49 50 47 48 50 51 52 54 56 57 59 60 61 60 59 58 58 58 57 56 58 57 56 56 56 55 54 53 50 50 50 49 48 46 43 43 43 41
42 40 39 38 37 30 26 33 44 44 48 47 47 46 48 48 49 51 52 52 56 58 58 57 58 56 56 58 58 58 57 57 56 55 54 52 52 50 52 50 49 48 46 45 44 43 43 43 41
44 41 40 32 29 36 34 33 45 43 48 49 48 49 47 48 51 53 54 56 54 56 57 57 59 58 58 58 57 56 56 55 51 51 54 51 49 49 50 48 47 46 45 44 43 44 43 42 41

GFSSGP_sfc_temp_108.txt.gz
Temp
76 75 71 66 54 52 46 51 55 60 65 66 67 67 65 64 64 56 66 70 73 74 76 79 82 82 82 82 81 81 81 81 80 80 80 81 80 80 80 80 80 81 81 80 80 80 80 79 79
74 76 68 60 49 44 47 54 57 62 68 69 68 66 65 61 65 66 67 72 75 75 76 78 81 81 81 81 81 81 80 80 80 81 81 80 80 80 80 80 80 80 80 80 80 79 79 79 79
74 76 62 56 49 45 48 56 59 66 71 70 66 67 63 62 65 68 68 74 75 75 76 78 81 81 81 81 80 80 80 80 81 80 80 80 79 79 80 80 79 80 80 80 79 79 78 78 78
69 66 62 54 49 54 56 59 63 66 71 74 72 63 65 69 67 68 73 74 73 72 75 80 81 81 81 81 80 80 81 81 80 80 80 80 80 80 80 79 79 79 79 79 78 78 78 77 77
65 60 52 54 51 58 61 64 66 65 70 70 70 62 61 67 70 71 73 74 74 71 74 78 81 81 80 80 81 80 79 79 79 80 80 80 80 81 80 79 78 78 79 79 78 78 78 77 77
57 58 52 50 51 61 64 66 66 67 65 68 68 62 61 65 68 71 73 71 73 72 75 77 80 80 80 80 80 80 79 79 80 80 80 79 79 79 79 78 78 78 78 79 79 78 77 77 76
54 51 47 47 50 57 64 67 61 62 63 66 68 63 59 64 70 71 69 70 71 72 73 74 75 77 79 79 79 79 79 80 80 79 79 78 78 78 78 78 78 78 78 78 78 77 76 76 75
56 53 46 48 50 53 66 68 66 63 63 69 69 60 57 64 70 69 69 69 68 69 70 68 70 71 71 75 79 79 79 79 78 79 78 77 77 77 77 77 78 78 78 78 78 76 76 75 74
60 48 42 47 51 56 66 64 66 67 63 67 67 67 69 69 69 68 69 70 68 68 66 67 67 68 69 70 74 78 79 78 78 77 77 72 66 67 68 75 78 78 78 78 77 75 74 73 72
53 45 48 56 58 57 62 64 64 62 61 61 67 68 69 68 66 65 67 68 69 67 65 65 66 67 68 73 71 70 72 73 71 67 63 62 62 63 67 72 77 78 77 76 76 73 70 62 55
50 46 54 58 61 62 61 61 66 59 56 61 64 65 65 66 66 65 66 69 69 68 67 67 66 67 68 69 68 67 70 67 65 63 61 60 61 59 58 57 57 57 66 58 60 57 55 55 55
47 55 56 58 60 59 58 62 61 62 62 68 66 66 66 64 66 66 66 68 67 65 67 67 67 68 68 68 67 67 68 64 61 60 60 58 56 55 55 54 54 54 53 54 53 53 54 54 54
48 52 58 59 58 57 60 57 58 60 65 67 67 66 65 65 66 68 68 68 66 66 68 68 68 67 68 69 66 64 64 62 60 59 59 57 55 54 54 53 53 53 53 54 53 53 53 53 53
52 54 54 56 57 57 56 56 56 60 63 64 65 63 65 65 66 67 66 66 66 68 68 69 69 69 69 71 66 64 63 61 61 59 59 58 56 54 54 53 53 53 53 53 53 53 53 52 52
55 49 52 52 55 55 56 52 53 60 62 61 62 60 63 65 67 66 67 67 68 68 69 69 69 70 69 70 67 64 63 62 61 61 59 58 56 56 55 54 53 53 53 54 53 52 52 52 53
49 46 40 52 53 56 53 44 56 59 59 59 59 58 62 63 65 67 69 69 69 69 69 70 72 70 68 69 67 63 63 62 62 61 60 60 58 57 55 54 53 52 53 53 53 52 51 51 51
43 37 39 45 55 53 50 45 55 60 57 57 56 56 58 61 64 67 67 69 67 69 70 69 70 69 68 67 65 61 60 61 61 61 60 59 59 57 55 54 53 53 53 52 54 51 52 51 50
38 37 41 40 49 50 48 46 51 55 54 54 54 54 55 57 63 66 67 67 67 68 67 68 69 69 68 65 60 57 57 58 62 63 63 61 58 57 56 54 53 53 52 51 52 51 49 50 50
45 41 40 47 52 47 46 46 50 54 52 51 52 53 54 55 64 67 68 66 65 66 66 66 67 68 64 61 59 57 58 56 57 61 64 64 63 58 56 55 55 53 53 52 52 50 50 49 48
46 42 41 47 51 48 46 45 51 52 53 53 54 53 53 53 57 61 65 65 65 65 66 67 68 67 66 65 62 59 58 58 58 59 62 62 63 59 58 58 56 57 54 52 51 51 48 47 47
45 41 41 43 47 47 46 40 44 50 51 53 52 51 52 52 53 56 63 64 65 64 65 66 67 67 67 63 60 59 59 58 57 59 60 60 62 61 62 60 58 56 55 53 53 53 53 49 47
40 49 47 44 39 33 45 30 39 44 46 47 48 47 49 50 53 55 62 63 64 65 66 66 67 67 64 62 60 58 59 56 57 56 54 54 56 60 60 60 57 55 53 52 52 53 50 49 47
45 50 45 43 38 34 39 32 35 41 42 46 49 50 51 51 52 55 61 64 65 65 65 66 66 63 61 61 61 59 59 58 56 54 54 53 53 55 60 59 57 53 52 52 52 50 49 48 47
52 45 42 38 35 29 37 34 31 39 42 45 49 51 54 54 54 57 60 62 62 63 65 64 63 62 61 61 60 60 59 56 55 54 53 52 52 53 58 58 55 54 54 53 50 49 49 47 46
46 38 28 26 24 24 38 35 35 45 48 49 49 51 54 54 56 57 57 59 61 62 63 63 62 61 61 62 61 60 58 57 56 54 54 53 52 55 57 57 56 54 53 53 49 48 47 46 45
40 38 30 26 27 29 39 32 38 48 54 52 53 52 53 54 56 57 59 60 60 62 62 62 61 60 61 60 59 59 59 59 58 56 55 54 55 56 57 57 56 54 53 50 49 47 46 46 45
40 34 38 33 30 29 29 42 45 48 49 50 51 50 50 51 53 54 57 59 62 61 61 62 62 61 60 60 59 59 58 56 55 55 56 55 57 57 56 55 53 51 52 50 47 47 45 45 43
43 43 33 32 23 25 29 31 37 43 44 48 48 47 47 48 50 52 53 55 58 60 60 60 60 59 60 60 60 57 56 57 57 56 56 56 55 55 53 51 50 49 48 47 47 45 43 43 40
40 38 38 36 34 25 29 30 45 44 45 44 47 48 47 49 51 52 52 53 56 56 57 57 56 54 54 54 54 53 55 56 56 55 54 53 52 51 50 50 48 47 48 47 44 43 42 42 40
42 38 38 30 30 32 30 34 44 43 47 48 48 49 47 49 49 52 53 53 53 54 54 54 55 55 56 56 56 55 54 52 51 50 50 51 51 50 48 47 47 46 45 43 43 43 42 41 40

GFSSGP_sfc_temp_111.txt.gz
Temp
79 79 77 71 64 61 57 60 65 67 71 75 75 74 74 74 71 68 73 77 79 80 83 84 82 82 82 82 82 81 81 81 80 81 81 81 80 80 80 80 81 81 81 80 80 80 80 80 80
78 78 74 66 59 54 58 64 64 69 75 76 75 74 73 70 70 68 70 76 80 81 84 84 81 82 82 82 81 81 81 80 80 81 81 80 80 80 80 80 81 80 80 80 80 79 79 79 78
78 77 69 63 57 54 57 64 67 71 76 75 74 74 72 69 69 71 75 78 82 81 83 83 81 81 81 81 81 80 80 80 81 81 80 80 80 80 80 80 80 80 80 79 79 78 78 78 78
74 72 69 58 54 59 62 68 69 71 77 77 75 71 72 74 72 76 78 80 81 80 83 82 80 81 81 81 80 80 80 81 81 80 80 80 80 80 80 80 80 80 79 79 78 78 78 78 77
71 67 58 56 56 61 66 69 71 71 72 74 74 69 68 72 74 76 77 80 80 80 82 83 81 81 81 81 80 81 81 80 80 80 80 80 80 80 79 79 79 79 79 79 78 78 77 77 77
64 66 55 52 57 63 68 72 72 70 71 72 72 70 67 71 72 75 78 79 81 80 82 83 81 80 80 81 81 80 80 80 80 80 80 80 81 80 79 78 79 79 79 78 77 77 77 77 76
62 59 55 55 55 60 66 72 69 67 68 69 72 68 67 69 72 76 77 79 78 82 81 83 82 81 79 80 80 80 80 80 80 80 80 79 79 79 78 78 78 79 79 78 77 77 76 76 75
63 61 52 55 56 57 70 71 70 69 67 73 73 69 68 71 73 73 73 75 77 79 80 82 82 83 82 82 79 79 79 80 79 79 78 77 77 77 78 78 78 78 78 77 77 76 75 75 74
65 56 50 54 56 61 68 66 72 72 70 71 73 72 74 71 71 70 71 72 74 75 79 81 80 80 80 81 80 79 79 79 78 77 77 76 74 79 78 77 78 78 78 77 76 75 74 74 73
60 53 53 60 63 62 66 66 68 68 69 69 70 70 71 71 69 68 69 70 71 72 75 79 79 79 79 79 80 79 79 79 81 80 78 78 77 78 79 78 77 77 77 76 75 72 70 71 73
57 53 58 62 65 65 64 65 70 67 63 68 70 71 68 68 69 68 70 73 72 73 72 76 77 78 78 78 77 75 73 74 77 77 76 76 75 75 76 75 75 77 73 75 73 71 72 71 72
55 59 59 62 64 62 61 66 65 66 68 74 73 74 69 67 68 68 69 72 73 72 73 75 76 76 76 76 76 72 73 71 75 74 75 74 72 73 73 73 71 71 71 71 71 70 70 70 72
55 58 61 62 60 60 62 60 63 63 69 72 71 71 68 68 68 70 71 73 74 72 72 74 75 76 75 74 74 71 71 73 74 73 73 73 71 71 70 70 70 70 70 71 70 70 70 71 71
59 58 58 59 61 60 59 60 61 66 68 69 68 69 71 69 69 69 70 70 72 72 72 74 74 76 75 73 74 72 71 73 72 71 72 72 72 71 70 69 68 69 71 70 71 70 70 69 71
58 54 57 58 61 59 60 57 58 65 66 66 67 67 69 68 70 70 70 72 70 72 74 73 74 76 74 72 72 72 71 72 71 71 72 71 70 71 70 69 69 69 70 71 70 70 69 68 69
54 53 48 58 58 60 60 50 60 66 63 64 66 66 66 68 69 71 71 73 73 71 72 72 74 73 74 72 71 71 72 71 71 72 71 70 70 70 69 68 67 67 68 68 69 68 67 68 69
49 45 45 49 58 57 57 52 60 65 63 61 65 65 65 66 68 70 71 72 72 72 71 71 73 71 72 71 69 69 70 71 71 71 70 69 68 68 69 68 67 67 67 68 68 66 69 67 66
44 44 46 46 54 55 52 51 57 61 60 60 62 65 63 65 69 69 70 72 72 70 71 70 70 72 71 69 65 65 67 68 70 70 69 66 65 66 68 67 66 67 66 66 66 67 66 67 67
49 45 45 50 56 51 51 51 54 59 58 58 60 62 64 64 69 69 70 71 70 70 69 70 69 70 68 64 62 62 62 63 66 69 68 65 64 61 65 66 66 66 66 66 67 65 65 64 66
49 47 46 50 54 51 49 49 54 56 56 57 57 58 58 60 65 66 67 69 69 69 68 69 69 68 67 66 65 63 63 63 64 62 63 62 62 61 61 66 65 65 63 62 64 63 62 62 61
50 46 46 45 49 50 48 46 49 53 55 57 58 57 58 57 58 62 64 67 68 68 67 68 69 68 67 66 62 60 61 60 59 59 57 59 61 61 63 64 62 61 63 61 63 62 59 58 57
43 51 49 46 44 39 47 34 45 49 51 53 55 56 56 57 59 60 62 66 67 68 67 68 69 69 67 64 62 61 59 56 57 54 54 54 55 55 58 63 62 62 61 60 61 63 64 64 62
49 52 47 46 42 42 41 36 44 47 44 45 52 55 57 59 59 59 61 65 68 69 67 67 68 68 65 63 64 61 59 57 54 54 53 54 54 55 55 57 61 62 59 62 62 61 62 64 64
53 48 46 43 41 36 38 36 41 40 41 45 52 53 55 59 61 62 63 67 67 68 68 67 66 65 63 62 61 60 56 54 53 53 52 53 54 54 55 56 60 61 62 62 62 62 62 62 63
49 43 34 35 32 33 41 38 40 42 48 48 50 51 53 56 58 61 63 64 65 65 66 65 64 60 61 61 60 59 58 58 55 54 54 53 53 53 54 56 59 58 59 60 59 59 59 58 59
44 42 33 26 29 32 41 34 39 45 50 53 53 51 52 52 54 56 60 62 63 62 62 61 61 60 61 61 60 60 60 59 59 57 56 54 54 54 58 59 58 57 57 58 58 56 55 56 57
46 40 44 34 33 32 36 43 44 47 48 50 50 50 50 50 51 53 56 59 61 61 61 61 61 60 60 59 59 59 60 59 58 58 57 56 56 56 55 56 55 53 53 54 56 55 55 56 55
49 48 39 37 27 28 37 37 38 39 41 47 48 48 48 50 51 51 53 56 58 59 60 61 61 60 61 61 61 59 60 58 57 57 55 55 54 54 54 53 53 52 53 55 54 54 55 54 53
45 44 43 41 38 32 31 38 48 43 45 46 48 50 48 49 50 51 52 53 54 54 54 55 54 54 54 55 56 55 54 54 54 54 55 56 55 55 53 53 53 54 54 55 56 55 54 54 53
48 45 42 36 35 37 36 39 49 48 47 50 49 51 51 51 51 51 53 55 54 52 52 53 52 53 53 55 56 55 54 54 53 53 54 55 53 53 54 55 54 54 54 54 55 54 54 54 52

GFSSGP_sfc_temp_114.txt.gz
Temp
84 89 90 83 71 71 67 69 78 75 77 84 84 82 82 85 81 74 81 86 91 89 91 87 82 82 82 82 82 82 81 81 81 81 81 81 81 80 81 81 81 81 81 80 80 80 80 80 80
86 85 85 80 67 63 68 76 73 79 81 85 83 83 81 81 82 77 80 84 89 91 91 90 81 81 82 82 81 81 81 81 81 81 81 80 80 81 81 81 81 81 80 80 79 79 79 79 78
85 86 78 72 68 63 67 75 77 79 83 83 81 84 83 79 80 81 85 87 91 91 88 89 81 81 81 81 81 81 81 80 81 81 80 80 80 81 80 81 80 80 80 79 79 78 78 78 77
82 81 80 67 65 70 73 78 77 79 84 85 83 80 82 82 81 85 87 90 91 91 91 83 81 81 81 81 81 80 80 81 80 80 80 80 80 81 80 80 80 80 79 79 78 78 78 77 77
83 80 68 65 67 74 76 78 79 77 80 82 83 79 79 81 83 85 87 90 89 91 92 88 81 81 81 80 80 80 81 81 80 80 80 80 80 80 79 80 80 79 79 78 78 78 77 77 77
73 77 65 62 67 74 77 81 79 78 81 81 80 80 79 81 81 85 88 89 91 90 91 89 81 80 80 81 80 81 80 80 80 80 80 80 80 79 79 79 79 78 78 78 78 77 77 77 76
71 69 65 67 67 69 74 80 77 77 77 78 80 77 79 78 79 85 88 90 91 91 90 88 87 83 79 80 80 80 80 80 80 80 80 80 79 79 79 79 79 78 78 77 77 77 76 76 76
74 70 64 65 64 65 76 78 77 76 75 82 81 77 76 82 79 83 86 88 90 91 90 88 88 88 87 86 79 79 79 80 80 80 78 78 78 78 78 79 79 78 77 77 76 76 76 75 75
74 64 61 63 63 67 75 72 78 79 77 79 81 81 81 83 78 78 81 81 85 88 90 86 85 89 87 88 84 80 79 79 79 79 77 79 84 80 82 79 78 78 77 76 76 75 75 74 74
69 62 63 68 70 69 73 73 75 73 75 77 78 82 81 81 76 77 74 78 82 84 87 87 87 89 89 88 87 87 86 83 80 84 85 85 83 85 84 79 77 78 76 76 75 74 74 79 82
67 62 67 69 71 72 70 71 76 72 69 76 75 81 78 78 74 75 73 79 81 83 85 87 88 89 88 87 88 88 87 79 79 84 87 86 85 83 84 81 81 81 78 80 78 77 82 82 82
62 67 68 68 71 69 68 73 70 72 72 80 80 83 82 78 76 72 76 77 81 84 83 85 86 87 87 87 87 85 82 78 83 85 86 84 83 83 83 83 82 81 82 80 81 80 80 80 82
64 66 68 70 69 69 70 67 68 71 77 81 81 81 79 79 79 77 78 80 81 81 82 82 85 86 87 87 85 80 73 80 83 84 84 84 82 82 82 82 81 81 81 81 80 80 80 81 82
67 66 67 68 68 69 65 68 67 73 75 76 76 77 80 81 80 79 75 76 79 82 78 82 83 86 87 85 81 78 75 77 81 82 82 83 82 82 81 80 80 80 81 81 81 80 80 79 81
66 61 67 67 68 66 67 63 64 73 75 74 76 78 78 80 82 81 78 77 79 80 82 82 83 85 86 84 81 78 73 76 80 81 82 82 82 81 80 80 80 80 81 82 81 81 80 79 79
62 62 57 66 65 66 65 57 68 74 72 71 74 78 77 78 80 82 81 76 81 78 81 81 81 82 83 82 79 79 76 76 80 81 81 81 80 81 80 79 79 80 80 79 78 77 77 77 77
61 54 56 58 67 63 62 58 68 73 71 69 72 76 77 77 78 80 80 78 81 77 73 76 79 80 81 76 75 77 78 78 81 82 81 80 80 80 79 78 77 78 77 78 77 77 77 76 76
53 54 56 56 62 63 59 59 65 68 67 67 70 73 75 77 79 80 79 75 78 78 76 76 77 78 79 72 71 71 75 77 80 81 80 80 78 77 77 78 77 77 75 76 76 76 77 77 76
58 56 55 60 63 57 58 57 60 63 65 64 67 70 73 73 78 77 79 78 76 74 74 75 74 77 77 67 65 65 68 73 76 79 79 77 76 71 65 74 73 75 75 75 76 76 73 72 76
60 56 56 59 59 57 56 55 59 62 62 63 64 65 68 70 76 77 76 77 75 75 72 73 73 75 75 70 66 67 65 69 73 74 75 74 74 70 71 68 70 75 75 74 74 72 72 72 73
60 55 54 53 58 57 55 53 56 63 64 64 64 66 68 68 70 73 73 76 77 74 73 74 74 75 73 70 64 62 61 62 63 66 65 66 70 69 62 64 69 74 72 71 71 71 70 68 68
54 59 55 53 53 48 55 47 55 58 56 57 61 62 64 67 71 73 73 73 77 73 72 74 73 74 73 69 65 64 63 60 60 55 54 54 57 57 58 60 63 66 65 65 67 68 69 68 67
56 57 54 53 53 51 51 44 50 53 44 50 55 57 61 65 69 71 75 75 76 77 72 72 68 68 66 65 63 63 60 57 56 53 53 53 54 56 56 56 56 55 59 64 67 69 70 69 69
61 56 53 53 52 48 46 42 47 40 41 45 51 55 55 57 64 71 74 74 75 76 71 69 69 67 65 65 64 60 56 53 52 52 52 53 54 55 57 56 55 55 57 62 64 66 68 70 70
60 55 44 45 42 42 50 46 44 46 47 48 50 51 53 56 57 62 71 73 73 70 68 68 66 61 62 61 59 57 55 54 53 53 53 53 54 54 55 55 54 56 61 63 64 66 66 69 68
53 51 40 31 36 38 49 38 44 48 54 55 54 52 52 53 54 56 62 66 67 67 64 62 61 60 61 59 58 59 59 56 56 56 55 55 55 56 57 57 58 62 63 62 63 62 61 63 64
55 49 51 38 41 40 45 54 52 53 57 55 53 51 49 50 52 53 57 61 61 61 61 61 61 60 61 60 60 60 61 62 60 59 58 58 57 55 56 58 61 60 59 58 57 61 62 63 64
56 56 47 48 33 34 47 48 43 47 52 55 55 51 49 50 51 51 52 54 57 59 61 61 63 63 62 62 62 62 63 62 61 58 56 56 56 55 53 53 53 53 52 53 53 55 60 61 60
55 54 52 50 47 40 41 46 56 53 53 54 56 54 50 49 50 51 51 51 53 54 54 55 56 59 57 57 57 56 55 53 53 53 54 53 53 53 52 50 49 50 54 56 57 61 61 60 59
55 53 52 47 43 48 45 49 59 57 55 57 57 56 53 52 53 55 53 53 53 53 53 52 53 53 54 57 55 54 55 55 54 54 55 57 56 57 57 56 58 58 59 61 62 61 60 59 59

GFSSGP_sfc_temp_117.txt.gz
Temp
84 92 93 84 70 72 68 74 82 78 80 88 89 85 85 89 82 72 85 91 93 91 90 86 82 82 82 83 82 82 81 81 81 81 81 81 81 81 81 81 80 80 80 80 80 80 80 80 80
90 91 87 80 66 64 69 81 76 81 85 88 87 87 85 83 89 82 84 90 93 94 91 88 81 82 82 82 81 81 81 81 81 81 81 81 81 81 81 81 80 80 80 79 79 79 79 79 79
86 90 78 73 69 64 69 80 80 84 88 86 85 89 87 83 87 87 91 92 95 94 92 89 81 81 81 81 81 81 81 81 81 81 80 81 81 80 81 81 80 80 79 79 78 78 78 78 78
85 83 81 69 66 74 76 82 83 81 87 89 87 82 88 89 87 92 92 94 94 94 93 82 81 81 81 81 81 81 80 80 81 80 80 80 81 80 80 80 80 79 79 78 78 78 78 77 77
86 81 68 67 68 76 83 84 83 80 83 85 88 81 83 86 89 90 91 94 94 92 92 87 81 81 81 81 81 80 80 80 80 80 80 80 81 80 80 80 79 79 78 78 78 78 77 77 77
75 79 65 64 69 78 83 85 84 82 84 86 83 83 81 87 87 89 93 94 96 94 92 89 81 80 80 81 80 80 80 80 80 80 80 80 80 79 80 79 78 79 78 78 77 77 77 77 77
71 71 65 68 69 73 79 86 81 80 82 80 86 79 80 84 87 91 93 95 95 95 94 90 87 83 79 80 80 80 80 80 80 79 80 80 79 78 79 79 78 78 77 77 77 77 77 76 76
75 72 66 68 67 68 80 82 84 80 79 86 86 79 79 84 86 91 93 93 94 94 92 87 85 87 85 83 79 79 79 79 80 79 79 78 78 78 79 79 78 78 77 77 76 76 76 76 76
79 65 63 67 68 71 80 76 83 84 79 83 85 85 84 80 84 86 88 90 91 92 93 89 84 86 85 84 82 79 79 79 79 79 77 78 81 81 81 78 77 77 76 76 76 75 75 75 75
71 65 66 73 73 71 76 76 78 77 77 79 82 88 86 84 82 79 80 83 87 88 90 89 85 86 88 89 85 86 85 84 82 82 83 84 84 84 83 78 77 76 76 76 75 75 75 78 81
72 64 72 72 74 75 73 74 78 74 71 77 78 84 84 84 80 80 80 83 83 81 85 85 86 86 90 91 88 88 87 85 80 81 85 86 85 84 83 80 79 78 77 78 77 76 82 83 83
65 72 71 72 74 72 70 75 73 74 74 82 83 85 86 85 82 81 81 83 82 73 77 83 85 89 92 90 89 89 88 83 76 78 85 83 84 84 83 82 82 80 82 81 81 81 81 82 84
67 71 72 73 72 72 73 70 71 73 79 83 83 83 83 84 84 85 83 83 84 80 82 85 86 90 90 89 89 89 82 79 74 76 84 86 83 84 84 84 82 82 82 82 81 81 81 83 84
72 70 70 73 72 72 69 70 72 74 80 79 80 80 83 83 85 85 83 81 79 79 78 85 87 87 89 88 88 86 81 77 76 77 83 85 84 84 83 82 81 81 82 82 82 81 81 81 82
71 65 70 70 71 69 71 64 67 76 78 76 78 81 82 83 85 86 86 83 83 83 82 82 84 89 87 87 87 79 79 79 77 80 84 84 83 84 83 82 80 81 83 83 83 82 82 80 80
67 67 61 70 69 70 67 57 71 77 76 74 76 79 80 82 84 87 88 87 85 83 83 80 82 86 86 87 82 77 78 75 78 82 83 83 83 83 81 81 80 81 81 81 80 79 78 78 78
67 59 60 63 71 67 66 60 70 75 73 71 74 76 79 81 83 84 87 88 86 82 78 77 82 83 84 86 81 75 78 73 77 82 81 81 81 82 81 80 80 81 79 79 78 77 78 76 76
56 57 60 60 67 66 62 62 67 69 68 69 71 74 77 80 82 85 85 85 85 80 72 74 77 81 81 79 79 71 73 73 76 81 80 80 80 81 80 79 79 79 76 77 77 76 77 77 76
62 61 60 64 66 61 61 60 62 66 67 66 66 70 74 78 82 83 83 84 82 74 68 67 69 75 73 75 72 69 68 72 77 80 81 80 79 79 79 78 77 77 75 75 76 76 75 75 77
64 61 60 63 65 62 61 59 63 66 64 65 67 67 70 73 77 81 81 82 81 78 69 68 70 74 75 75 71 69 67 70 76 78 78 76 76 75 74 72 73 69 74 75 75 74 72 73 75
62 58 57 56 63 64 61 56 60 63 63 62 63 64 68 71 73 77 79 80 81 78 73 72 69 75 74 74 69 65 62 62 68 73 73 72 71 71 72 73 72 73 74 73 73 72 71 66 70
55 62 58 57 56 52 62 48 57 58 57 57 59 59 63 66 71 76 77 77 80 80 77 73 70 72 74 71 65 63 61 59 61 60 61 63 68 66 66 64 62 63 61 64 67 67 67 66 63
59 63 58 58 57 57 56 48 54 57 48 51 54 55 57 60 63 71 77 79 80 81 80 75 68 66 66 66 65 65 62 60 59 56 55 54 57 59 58 58 57 56 56 57 59 62 64 65 65
65 64 59 59 57 47 53 47 50 46 45 47 52 53 54 56 58 66 77 80 79 80 75 70 66 64 64 64 65 61 57 55 54 54 53 54 54 55 56 56 55 54 55 56 59 61 62 64 65
63 59 46 45 45 45 55 49 48 53 52 51 49 50 52 54 55 59 75 76 77 74 70 67 64 62 64 62 60 58 56 55 55 54 53 53 54 54 54 55 54 54 54 56 58 60 62 65 65
58 56 42 30 38 41 54 42 48 58 58 57 54 51 51 51 53 55 64 67 68 68 64 61 61 60 60 59 58 58 56 55 54 55 56 56 55 55 55 55 55 56 57 59 60 60 62 64 63
58 53 55 43 46 42 50 55 58 62 61 60 54 50 48 50 51 52 55 60 61 61 61 61 60 59 59 60 60 60 59 59 58 57 58 58 56 57 57 58 58 59 59 59 60 62 63 63 64
59 60 50 52 34 38 51 51 50 55 56 59 54 49 48 50 51 51 52 53 55 58 60 61 61 60 60 62 62 61 62 60 59 59 58 58 56 55 55 53 54 53 54 55 58 56 57 57 56
59 58 58 54 51 43 43 48 60 58 58 57 56 50 49 49 50 50 51 52 53 57 61 60 57 58 56 55 56 55 53 53 53 51 52 54 54 54 53 52 51 50 51 51 52 53 55 56 57
60 57 58 49 47 52 49 49 64 62 61 60 55 55 53 53 52 52 52 52 51 51 54 58 57 56 56 55 56 56 56 52 52 55 54 54 54 53 52 51 50 50 50 52 56 58 61 61 60

GFSSGP_sfc_temp_120.txt.gz
Temp
82 86 85 77 61 63 59 65 76 73 75 82 85 81 78 80 74 61 79 86 85 82 82 82 82 82 82 83 83 82 81 81 81 81 81 81 81 81 81 80 80 80 80 80 80 80 80 80 80
82 88 80 70 58 55 60 73 72 75 82 83 83 82 80 76 82 77 77 87 87 85 83 82 82 82 82 82 82 81 81 81 81 81 81 81 81 81 81 80 80 80 79 79 79 79 79 79 80
82 88 70 64 61 56 59 72 75 82 83 82 81 83 81 77 84 80 85 88 89 86 84 83 81 81 81 81 81 81 81 81 81 80 81 81 81 81 81 80 80 80 79 79 78 78 78 78 79
79 76 73 60 59 67 70 74 80 81 82 85 83 77 82 85 84 86 88 89 88 86 85 80 81 81 81 81 81 81 80 81 80 80 80 81 80 81 81 79 79 79 78 78 78 78 78 78 78
77 72 60 59 62 69 75 79 77 77 79 82 84 77 75 82 87 87 86 89 87 86 81 81 81 81 81 81 80 80 80 80 80 80 80 80 80 80 80 79 79 79 78 78 78 78 77 77 78
66 69 58 56 63 72 77 81 80 70 68 81 79 78 73 82 83 84 88 87 89 83 83 81 81 80 80 80 80 80 80 80 80 79 80 80 80 80 80 78 79 78 78 77 77 77 77 77 78
65 62 58 60 62 67 74 82 76 71 60 73 80 70 70 77 82 86 87 87 90 87 84 81 80 79 79 79 80 80 80 80 79 79 80 79 79 79 78 78 78 78 77 77 77 77 77 77 78
68 64 59 60 60 63 75 78 81 77 74 83 83 62 62 69 78 86 86 88 87 88 84 81 80 79 77 77 78 79 79 79 79 79 78 78 77 78 77 77 77 77 77 77 76 76 76 77 78
75 57 55 60 63 65 76 73 80 83 77 77 78 77 71 70 71 75 82 80 85 86 84 83 81 80 78 78 78 78 79 79 78 78 77 76 73 74 75 76 77 77 76 76 76 76 76 76 76
65 56 61 70 69 66 71 71 73 73 72 73 77 80 73 73 71 71 70 75 80 82 83 81 79 81 80 82 76 76 77 74 74 75 74 73 74 75 77 75 76 76 76 76 76 76 76 76 69
67 58 67 69 72 71 69 69 74 69 64 70 71 78 78 74 73 74 74 74 75 77 79 81 77 80 81 79 78 79 77 75 74 75 76 77 76 75 74 71 70 67 72 67 70 69 68 69 70
62 69 70 70 72 70 66 71 68 68 67 75 75 77 78 79 76 75 74 76 78 70 74 78 78 78 79 79 81 79 78 76 70 75 78 78 75 73 71 69 70 67 66 65 65 66 69 71 73
65 68 71 72 71 70 71 66 67 68 73 77 78 77 74 75 76 78 78 79 77 72 69 72 75 76 74 82 78 77 77 74 74 71 76 77 72 71 71 70 70 67 67 66 66 67 68 68 71
69 68 68 70 71 71 67 66 68 70 75 73 75 73 74 74 76 77 79 77 76 72 70 72 74 77 76 78 77 76 74 71 69 70 75 78 73 71 70 69 68 68 67 67 67 66 66 68 68
70 62 66 69 70 67 68 61 63 72 75 71 72 73 73 74 76 76 78 78 78 75 76 73 70 74 76 81 77 73 72 71 70 71 77 75 73 71 70 68 67 68 68 69 67 67 66 65 69
64 64 56 68 68 67 65 52 66 72 70 68 69 69 72 74 76 76 78 78 80 75 71 69 72 71 78 79 75 74 73 72 70 71 75 74 73 71 69 67 67 68 67 66 65 64 63 63 63
62 52 56 61 70 66 63 55 66 69 67 65 66 68 70 72 75 76 77 78 79 79 71 73 71 72 77 78 74 72 72 70 70 73 72 72 73 71 68 67 66 67 65 64 66 63 63 61 61
51 53 57 57 62 62 58 57 62 65 64 62 63 64 67 70 74 77 75 77 78 74 72 74 73 76 75 74 72 68 69 69 70 73 72 72 70 70 67 67 67 66 64 63 63 63 62 62 62
60 58 57 60 64 58 58 57 60 62 60 58 59 60 63 67 73 75 76 75 75 73 70 69 66 67 68 69 68 67 66 65 69 72 71 70 69 68 67 66 66 65 63 63 64 62 62 60 62
61 57 55 60 65 60 58 58 59 60 58 58 58 58 61 63 66 72 72 72 73 71 66 64 66 64 63 67 68 66 67 66 70 71 69 68 68 67 67 67 65 65 62 64 63 65 59 59 60
58 54 52 52 59 62 57 51 56 60 59 59 60 58 59 59 61 66 71 69 71 71 64 62 63 64 63 67 66 63 63 63 66 67 63 64 66 66 65 65 65 64 63 62 62 63 61 58 60
51 60 59 56 53 45 57 39 49 53 52 53 55 55 56 56 58 62 65 69 68 70 65 64 65 64 65 68 64 64 63 61 60 56 57 60 63 63 63 61 61 60 61 60 62 62 61 60 59
55 61 58 56 52 50 51 41 48 52 46 48 51 54 54 56 58 58 61 65 72 73 68 66 64 63 64 64 65 62 61 58 57 57 55 54 55 56 57 57 59 59 58 59 60 60 60 60 59
64 60 59 54 50 39 47 43 41 43 45 49 52 51 52 53 55 57 60 63 70 69 67 62 64 62 63 63 61 60 57 56 55 54 54 53 53 54 55 55 54 54 55 56 56 57 59 59 59
59 51 37 36 36 35 51 44 40 50 51 50 48 49 50 52 53 55 59 66 65 64 64 64 63 61 61 61 60 58 57 57 55 54 54 53 52 52 54 54 53 53 54 54 54 56 58 59 58
54 51 35 28 30 34 50 36 44 56 56 55 52 50 50 51 52 52 55 60 62 61 61 61 60 59 60 59 58 58 57 55 55 54 54 54 55 54 54 54 54 54 54 54 54 55 57 58 57
53 46 51 40 42 36 41 47 53 57 56 55 51 50 48 50 50 51 53 56 60 60 60 59 59 59 59 58 58 57 57 56 54 55 56 56 56 56 55 54 54 54 55 56 57 56 57 57 57
55 57 43 43 28 30 42 42 41 48 51 53 49 47 48 49 50 50 51 53 57 57 59 59 59 58 59 58 57 56 58 58 58 57 56 56 56 55 55 55 54 54 54 55 54 53 54 54 52
52 51 52 49 45 34 34 37 52 50 52 50 51 49 47 49 49 50 50 52 52 55 55 55 55 54 54 54 53 52 52 53 53 52 53 53 53 53 52 52 52 51 51 52 52 52 54 54 54
56 52 52 40 39 43 41 39 57 54 54 53 52 50 51 49 51 51 50 51 52 52 53 54 54 53 54 55 55 53 53 54 54 53 53 53 52 53 52 52 51 51 52 51 51 52 55 54 54

GFSSGP_sfc_temp_123.txt.gz
Temp
79 81 75 69 55 54 49 56 62 66 68 72 76 75 72 70 69 60 74 78 77 77 80 81 82 82 82 82 82 82 81 81 81 81 81 81 81 80 81 80 80 80 80 80 80 80 80 81 81
76 79 72 64 51 46 49 61 63 71 76 76 78 76 73 68 75 72 73 79 79 79 80 80 81 82 82 82 82 81 81 81 81 81 81 81 81 80 80 80 80 79 79 79 79 79 79 80 80
76 80 63 56 51 47 50 62 65 76 78 76 75 77 73 71 76 75 78 81 80 79 80 81 81 81 82 82 81 81 81 81 81 81 81 81 81 81 80 80 80 79 79 78 78 78 79 79 80
70 67 64 52 50 57 60 66 71 76 79 80 77 70 75 78 77 79 83 82 80 78 80 80 81 81 81 81 81 81 80 80 80 80 81 81 81 81 80 80 79 78 78 78 78 78 78 79 79
67 62 51 49 52 59 66 70 70 71 71 71 72 70 69 76 81 83 83 83 79 79 79 80 81 81 81 81 81 80 80 80 80 80 80 80 80 79 79 79 79 78 78 78 78 78 78 79 79
59 59 47 45 52 62 65 71 71 68 66 71 65 62 66 71 68 70 82 81 83 78 79 80 80 80 80 80 80 80 80 80 80 80 80 80 80 79 79 79 79 78 77 77 77 77 78 79 80
56 52 47 50 53 58 66 72 66 66 65 65 67 61 65 67 68 70 71 78 80 79 78 78 78 79 79 80 80 80 80 80 79 79 80 79 79 78 78 78 78 77 77 77 77 77 78 79 79
60 55 49 50 52 55 67 70 73 69 65 75 73 61 62 66 70 67 67 73 77 77 77 75 76 77 76 77 79 79 79 79 79 79 78 78 78 77 77 78 77 77 77 77 77 77 77 78 78
66 49 45 51 56 58 67 64 71 74 69 73 72 70 70 67 69 64 64 69 72 74 75 74 74 74 74 75 77 78 79 79 78 77 77 76 72 73 73 76 76 77 76 76 76 77 77 76 77
56 47 52 61 61 59 64 64 65 65 64 66 67 68 68 68 65 63 62 63 66 71 74 75 74 74 74 78 74 72 76 72 70 72 72 71 71 72 74 75 76 76 76 76 77 76 76 73 66
58 51 60 64 66 66 63 63 67 61 58 63 64 66 67 66 68 68 66 62 64 69 72 77 75 74 74 75 74 73 72 69 69 71 70 71 73 72 70 68 66 65 71 66 69 68 66 65 67
55 64 64 65 67 66 62 66 62 63 62 67 69 69 69 67 68 69 68 66 69 69 70 73 75 75 75 73 74 73 72 69 67 72 70 72 71 69 67 66 63 62 61 61 62 62 64 65 69
57 61 66 67 66 65 67 62 61 63 68 70 72 72 68 68 69 70 72 70 69 69 70 70 71 71 71 71 75 74 73 71 71 68 73 75 71 69 67 65 63 62 61 61 61 61 64 66 67
62 63 63 65 65 66 63 61 62 66 69 69 71 69 69 68 70 70 70 67 68 70 68 70 71 70 71 70 74 75 74 70 69 68 74 77 72 69 68 67 64 62 62 62 63 64 63 63 69
65 57 59 62 64 62 64 57 58 65 67 64 63 63 66 67 69 69 70 70 74 69 69 69 70 71 69 70 71 74 73 70 69 72 73 75 69 68 66 66 64 64 64 65 64 62 63 63 65
57 54 47 60 63 62 60 48 60 63 63 61 61 60 64 67 68 68 74 71 72 70 67 70 71 71 69 67 73 73 70 70 68 70 73 75 70 68 66 66 64 63 63 62 62 61 61 60 60
51 42 48 54 62 61 56 49 59 63 61 58 57 58 61 63 67 69 72 73 71 71 70 71 70 68 68 71 72 71 70 69 68 72 72 73 70 68 67 65 63 63 62 61 63 60 61 58 58
44 44 50 48 57 57 53 50 55 57 57 54 53 55 56 59 62 67 70 72 70 70 70 69 67 66 66 68 70 68 68 67 69 71 69 72 67 66 65 63 63 62 61 60 61 61 59 58 59
52 49 48 52 59 54 52 51 53 55 55 53 52 52 55 57 62 65 67 68 67 67 65 66 65 65 64 64 66 65 65 65 66 71 69 69 66 65 63 61 62 62 62 62 63 60 60 57 56
53 48 46 52 59 54 52 50 53 54 53 53 53 52 53 56 57 60 63 65 66 64 66 67 64 65 64 63 62 64 65 64 64 68 69 69 66 64 64 62 62 63 61 63 63 62 57 56 55
50 47 46 48 54 56 52 45 47 51 53 55 54 53 53 53 54 57 60 61 63 62 64 64 62 63 63 62 62 63 62 62 62 63 62 63 63 64 62 62 62 62 61 62 62 62 61 56 55
45 55 54 53 47 39 50 33 43 49 50 50 48 50 54 53 54 56 58 59 60 63 61 62 61 62 62 62 63 63 62 60 59 57 57 57 58 58 59 60 60 60 60 61 61 62 61 60 58
51 56 54 52 46 41 45 35 39 46 44 47 48 52 52 53 54 54 55 59 61 64 60 61 61 61 61 62 60 62 60 57 57 55 55 54 54 56 56 57 57 58 59 61 62 60 59 59 58
59 54 50 49 43 34 42 38 35 39 43 44 50 50 51 52 54 56 58 60 60 62 63 62 61 59 59 60 60 59 58 57 56 56 55 54 54 53 55 55 54 54 55 57 58 58 58 58 59
52 42 27 31 29 30 45 38 38 46 47 46 48 48 50 51 51 53 56 60 60 59 61 62 62 60 59 60 58 60 60 58 57 56 55 53 52 53 53 54 53 53 53 54 54 55 56 57 57
47 43 28 20 23 28 43 32 40 51 49 49 52 50 50 50 51 52 55 59 60 61 61 61 60 58 59 59 58 57 56 55 55 55 54 54 52 53 54 54 54 54 55 54 54 53 53 56 56
47 40 47 34 36 29 35 43 49 50 48 49 48 49 48 49 50 51 52 55 59 58 59 59 58 58 57 57 56 56 56 56 55 55 55 54 55 54 54 54 54 54 54 54 54 53 55 56 56
49 52 39 35 23 25 34 35 37 43 45 48 44 46 48 49 50 50 51 53 55 56 56 57 57 56 55 55 56 56 56 57 55 56 55 55 56 55 54 54 54 54 54 55 54 53 54 55 53
47 44 45 42 38 30 28 33 45 44 46 45 44 48 48 48 49 49 50 52 53 54 53 53 54 54 53 53 53 53 53 53 54 53 53 53 53 54 53 53 52 52 52 53 53 53 54 54 53
50 45 44 33 35 36 34 35 50 48 47 48 46 48 50 49 49 49 50 51 52 52 52 52 53 53 54 54 54 54 54 54 53 51 53 53 52 53 53 53 52 52 52 52 52 52 54 54 53

GFSSGP_sfc_temp_126.txt.gz
Temp
77 77 73 67 54 52 47 53 59 63 66 72 76 73 70 69 68 59 71 76 75 76 79 80 81 82 82 82 82 82 81 81 81 81 81 81 80 81 80 80 80 80 80 80 80 80 80 81 80
73 78 69 61 49 44 47 56 59 64 72 75 76 72 68 66 72 68 70 76 77 78 79 80 81 82 82 82 81 81 81 81 81 81 81 81 80 80 80 80 80 80 80 80 79 79 80 80 80
74 77 62 55 49 45 47 57 62 71 74 76 72 74 69 68 74 71 74 77 78 78 79 80 81 81 81 81 81 81 81 81 81 81 81 81 80 81 80 80 79 79 79 79 79 79 80 79 79
68 65 61 51 48 54 57 61 66 69 74 72 68 67 72 71 71 73 77 78 77 77 78 80 81 81 81 81 81 81 81 81 81 81 81 81 80 80 80 79 79 78 78 78 79 79 79 79 79
64 59 49 46 48 55 59 64 67 67 68 68 70 63 65 69 72 71 76 78 75 75 78 80 81 81 81 81 81 80 80 80 80 80 80 80 80 80 79 79 78 78 78 78 78 79 79 79 78
57 56 45 42 49 57 60 65 65 66 64 66 66 63 63 68 67 67 71 73 78 76 78 79 80 80 80 80 80 80 80 80 80 80 80 80 79 80 80 78 78 78 78 78 78 79 79 79 78
55 50 45 46 49 54 61 67 63 64 64 65 66 61 64 67 67 67 67 71 77 77 77 77 78 79 80 80 80 79 80 80 80 79 79 79 79 79 79 78 77 77 77 78 78 79 78 78 77
57 53 46 46 49 51 62 65 68 65 65 72 70 60 60 67 68 69 69 67 71 75 76 74 75 77 75 76 79 79 79 79 79 79 79 78 77 78 78 77 77 77 77 77 78 78 78 77 76
62 47 43 48 52 55 63 61 66 70 65 68 68 65 66 67 67 67 67 69 67 67 67 74 73 73 73 74 76 78 79 79 78 78 77 76 72 73 73 75 77 77 77 77 77 78 77 76 75
54 45 49 58 58 57 61 60 62 62 60 62 65 65 67 66 62 63 64 64 65 65 66 61 72 72 72 76 74 74 76 74 71 73 70 69 70 71 73 74 76 76 77 77 77 77 74 70 68
55 50 57 61 63 64 61 61 63 58 56 60 62 64 66 64 63 62 63 66 66 65 64 61 68 71 71 74 71 72 71 69 69 69 69 69 71 71 69 68 67 65 71 65 68 66 64 64 65
52 60 61 62 65 63 61 64 61 60 61 66 66 64 64 63 63 63 63 63 62 62 61 61 69 71 71 70 70 71 70 69 69 69 68 69 68 66 63 63 61 61 61 61 61 61 62 64 64
55 59 64 64 63 62 64 60 59 61 65 66 68 68 64 65 66 66 67 67 65 62 62 66 68 68 69 70 70 71 70 70 69 68 70 69 68 66 63 61 59 60 60 60 59 61 63 64 63
59 60 61 63 63 62 61 60 60 62 64 64 64 62 62 63 64 65 66 66 65 65 69 70 67 66 69 69 69 71 71 69 68 68 71 70 69 67 64 60 59 59 60 60 60 60 64 63 64
62 55 58 59 60 60 61 56 54 62 62 59 58 58 60 62 65 63 66 68 67 67 67 68 68 69 69 68 66 66 71 68 68 70 71 71 68 67 65 62 59 59 59 61 60 60 63 62 64
54 52 45 57 59 60 57 46 57 59 58 55 55 53 58 60 62 63 66 67 70 67 67 67 70 70 68 68 65 66 68 70 69 70 73 72 70 68 64 63 60 60 59 60 60 59 59 59 61
48 40 44 51 60 58 54 46 54 57 57 54 53 55 57 58 61 63 65 65 67 67 67 67 68 69 68 66 67 68 71 68 67 68 71 73 70 69 66 63 60 60 59 59 61 57 62 59 56
41 41 46 45 54 55 50 47 52 55 55 52 52 51 52 55 57 62 63 65 66 66 67 67 66 67 66 66 67 66 67 66 65 64 70 70 70 68 66 61 60 60 58 57 58 59 57 58 58
48 45 44 49 56 51 49 48 50 53 52 51 51 50 53 55 58 60 62 63 63 64 64 63 63 63 65 65 65 64 66 65 64 66 69 66 67 66 63 60 59 59 60 58 60 58 58 56 56
49 44 44 50 56 52 49 46 50 51 50 50 51 50 51 53 54 56 59 60 60 61 63 63 63 63 62 62 62 64 64 64 63 63 64 64 64 65 63 61 59 59 58 59 59 59 56 55 57
47 45 44 46 52 52 48 42 45 51 51 53 52 52 52 51 52 53 57 57 58 58 60 62 64 63 62 63 63 63 64 63 60 61 59 61 64 63 62 61 60 59 58 58 59 59 58 56 56
43 53 53 51 45 37 47 33 40 46 48 48 48 52 51 53 53 53 55 56 57 58 61 61 62 61 61 62 61 61 60 59 57 56 58 57 58 59 60 60 59 58 57 57 58 61 59 60 57
49 53 51 50 44 39 42 35 37 43 43 44 50 51 52 53 54 54 53 57 59 60 59 60 61 60 58 59 62 61 59 56 55 55 55 54 55 55 56 56 56 57 57 59 60 60 60 60 58
56 50 46 44 41 33 40 37 35 38 40 43 50 50 51 52 53 56 57 58 60 61 60 60 61 58 58 58 60 60 56 55 54 54 53 53 53 53 54 55 54 54 56 56 57 59 60 59 58
50 40 26 30 27 29 42 35 38 43 44 47 48 49 50 51 51 53 57 58 59 60 62 60 58 58 57 58 59 59 58 57 55 55 53 52 52 53 53 54 53 53 54 55 55 56 57 57 55
45 41 26 21 22 26 41 30 39 47 47 48 51 50 51 50 51 51 55 58 60 60 60 59 58 57 58 58 57 57 57 56 57 56 54 53 53 53 53 54 54 55 55 54 54 53 54 55 55
44 38 44 32 32 28 33 40 46 47 45 46 48 49 48 49 50 50 53 55 56 58 58 58 57 57 57 57 56 55 55 55 55 55 55 54 53 54 53 54 54 54 54 54 54 53 54 55 55
46 50 37 34 23 24 31 33 35 42 43 45 47 47 48 49 49 50 51 52 53 55 56 56 55 54 55 56 56 56 55 56 56 55 54 55 54 54 53 53 53 53 54 54 54 53 54 54 53
45 42 42 39 35 29 27 33 42 44 45 42 46 47 48 48 48 48 50 52 52 53 53 53 53 53 53 53 54 54 54 54 54 54 53 53 54 54 54 53 53 52 52 53 53 53 53 53 53
48 45 42 33 33 34 31 34 48 46 46 45 44 49 48 48 48 49 50 50 50 51 51 52 53 52 52 53 53 53 54 53 53 52 53 53 53 53 53 53 52 52 52 52 52 53 54 53 53